GFSMA_925_temp_066.txt.gz
Temp
16 16 16 16 16 16 16 16 16 16 16 15 15 15 14 14 13 12 12 12 12 11 11 11 11 10 10 10 10 9 9 9 9 9 8 8 8 7 7 7 7 7 7
17 16 17 16 16 17 16 16 16 16 16 15 15 15 15 14 13 13 12 12 12 11 11 11 11 11 10 10 9 9 9 9 9 9 8 8 8 7 7 7 7 6 7
17 17 17 16 16 16 16 16 15 15 15 15 15 15 15 14 14 13 13 12 12 12 12 11 11 11 10 10 10 9 9 9 9 9 8 8 7 7 7 6 6 6 6
17 17 16 17 16 16 16 16 15 15 15 15 15 15 14 14 14 14 14 13 13 12 12 11 11 11 10 10 10 9 9 9 9 8 8 8 7 7 7 6 6 6 6
17 17 17 16 17 16 16 16 15 16 15 15 15 15 15 14 14 14 14 14 14 13 12 12 11 11 11 10 10 10 9 9 9 8 8 7 7 7 7 6 6 6 6
17 16 17 16 18 16 16 16 16 15 15 15 14 15 15 14 14 14 14 14 14 14 13 12 11 11 11 11 10 10 10 10 9 8 8 7 7 7 7 6 6 5 5
16 16 17 18 17 17 16 16 15 15 15 15 14 13 14 14 14 14 14 14 14 13 13 13 12 11 11 11 11 10 10 10 10 9 8 7 7 7 7 6 6 5 5
17 16 16 16 16 16 16 15 15 15 15 14 14 12 11 13 14 14 14 14 14 13 13 12 12 11 11 11 11 11 10 10 10 9 8 7 6 6 6 6 5 5 4
16 16 17 17 17 16 16 16 16 15 15 14 14 15 10 10 10 13 14 14 13 13 13 12 12 11 11 11 11 11 11 10 10 9 9 8 7 6 5 5 5 4 4
16 16 16 16 16 16 16 16 16 16 15 14 13 13 13 13 10 11 12 13 13 12 12 12 12 12 12 11 11 11 11 10 10 10 9 8 7 6 5 5 5 4 4
16 17 16 16 16 16 16 16 16 15 15 15 14 13 12 11 11 11 10 10 11 12 12 12 11 12 11 10 11 11 10 10 10 9 9 8 7 6 6 5 5 5 4
17 16 16 16 16 16 16 16 16 15 14 14 13 13 13 12 10 10 8 9 10 10 11 11 11 11 11 11 10 10 10 9 9 9 8 8 8 7 6 6 5 5 5
16 16 16 16 16 16 16 16 15 15 14 12 12 11 12 12 13 12 10 8 8 10 10 10 11 11 10 9 9 9 9 9 8 8 8 8 7 7 7 6 6 5 5
14 15 15 16 16 16 16 16 15 14 13 13 12 12 11 11 11 11 11 8 6 7 7 9 10 9 9 8 8 8 7 7 7 7 7 7 7 7 7 6 6 5 5
14 14 15 15 15 15 15 15 14 14 13 13 13 12 12 11 10 11 10 9 9 7 6 7 8 8 8 8 7 7 7 6 7 7 7 7 6 6 6 6 6 5 5
14 14 14 15 15 15 14 14 13 13 14 13 13 12 12 11 10 10 9 8 8 7 6 7 7 7 7 6 6 6 6 6 6 6 6 6 6 6 5 5 5 5 4
13 14 14 14 15 14 13 12 13 13 13 12 12 12 11 10 9 8 7 7 7 6 4 4 5 5 5 5 5 5 5 5 4 4 4 5 5 5 5 5 4 4 3
14 14 15 13 13 13 13 13 12 12 12 12 12 10 9 9 8 7 7 6 5 5 4 4 4 4 4 3 3 3 3 4 3 3 4 4 4 4 4 4 4 4 3
14 13 12 13 14 13 13 13 13 12 12 11 11 9 9 8 7 6 5 5 5 4 4 3 2 2 2 1 1 2 2 2 3 3 3 3 3 3 3 3 3 3 3
12 12 12 12 12 12 12 14 12 11 11 10 9 8 8 7 6 5 5 4 4 3 3 2 2 2 1 1 1 0 -0 0 -0 1 2 1 1 1 0 1 1 1 2
13 12 12 12 12 11 12 12 12 10 9 8 7 6 6 5 5 4 4 3 3 2 2 2 0 -1 -0 -0 -1 -2 -3 -3 -3 -1 -1 -1 -1 -1 -2 -2 -1 0 1
12 12 12 12 12 11 10 11 10 9 7 7 5 4 4 4 4 3 3 3 2 2 1 0 -1 -2 -2 -3 -3 -4 -4 -4 -3 -2 -3 -4 -4 -3 -2 -3 -2 -1 -0
12 12 12 11 10 10 10 8 8 7 6 5 4 3 3 2 2 2 1 1 1 0 -0 -1 -2 -3 -4 -4 -4 -5 -5 -6 -6 -5 -5 -5 -4 -4 -3 -3 -3 -2 -2
10 9 9 9 8 8 7 6 6 5 5 4 3 3 3 1 1 1 0 -0 -1 -2 -3 -3 -4 -4 -4 -4 -5 -6 -6 -6 -6 -5 -5 -4 -4 -4 -4 -3 -3 -3 -2
8 7 7 7 7 5 5 5 5 4 3 2 1 1 1 -0 -0 0 -0 -1 -3 -4 -4 -4 -4 -4 -4 -4 -5 -6 -6 -7 -6 -6 -6 -5 -5 -5 -4 -4 -3 -2 -2
6 5 5 5 5 3 3 3 4 3 1 0 -1 -1 -1 -1 -2 -2 -2 -3 -4 -5 -5 -4 -4 -4 -5 -5 -5 -6 -7 -8 -8 -7 -4 -6 -5 -5 -4 -3 -3 -2 -2

GFSMA_925_temp_069.txt.gz
Temp
16 15 16 17 16 15 15 15 16 15 15 15 15 15 14 12 12 12 13 12 12 12 12 11 11 10 10 10 10 10 10 9 9 9 8 8 8 7 7 7 7 7 7
16 15 16 16 16 16 16 16 15 15 14 15 14 15 14 13 12 12 12 12 12 11 11 12 11 11 10 10 10 10 9 9 9 9 8 8 8 7 7 7 7 7 7
16 16 16 15 16 16 16 16 16 15 15 14 15 14 14 14 13 12 12 12 12 11 11 11 11 11 10 10 10 9 9 9 9 9 8 8 8 7 7 7 7 7 7
17 16 16 15 15 16 16 15 15 15 15 14 15 14 14 14 14 13 12 12 12 12 12 11 11 11 11 10 10 10 9 9 9 9 8 8 8 7 7 7 6 6 6
16 16 16 16 16 16 16 15 16 15 15 15 15 15 14 14 14 14 14 13 13 12 12 12 11 11 11 10 10 10 10 9 9 9 8 8 8 7 7 7 7 6 6
16 16 16 16 16 16 15 15 16 15 15 14 13 14 14 14 14 14 14 13 13 13 12 12 11 11 11 11 10 10 10 10 9 9 8 8 7 7 8 8 7 7 6
16 16 16 15 16 15 16 15 15 14 14 15 14 13 13 14 14 14 14 14 14 13 13 13 11 12 11 11 11 10 11 11 10 9 9 8 7 7 7 8 7 7 6
16 16 16 15 16 15 15 17 15 14 14 14 13 13 15 14 13 14 14 14 14 13 13 13 13 12 12 11 11 11 10 10 10 10 9 8 8 7 7 7 6 6 6
15 16 16 16 15 15 18 15 15 15 14 14 14 15 14 16 14 13 13 13 13 13 13 13 13 13 12 12 11 11 11 11 10 10 10 9 8 7 7 6 6 5 5
15 16 16 16 16 16 16 17 17 16 15 13 12 13 14 14 16 16 13 13 13 13 14 13 13 12 12 11 11 11 11 10 10 10 10 10 9 8 7 6 6 6 5
14 14 16 16 15 16 16 16 16 15 15 14 14 13 12 11 11 14 15 13 12 13 13 14 12 12 12 11 11 11 10 9 10 10 10 9 9 9 8 7 6 6 6
14 14 16 15 16 17 16 16 15 14 15 15 13 12 12 13 11 10 11 12 12 12 12 12 12 13 12 11 11 10 9 9 9 9 9 9 9 8 8 7 6 6 6
14 14 15 15 16 16 16 16 15 15 14 14 13 12 13 12 12 10 10 11 10 9 10 10 11 11 11 10 10 9 9 9 9 9 8 8 8 8 8 7 7 7 7
14 16 16 16 16 15 15 15 15 15 15 13 12 12 12 13 11 10 10 10 8 8 8 10 10 10 10 10 9 8 8 8 8 7 7 7 7 7 7 7 6 6 7
15 15 15 14 14 14 15 15 15 14 13 12 12 13 13 11 11 11 10 9 10 8 8 9 9 9 9 8 8 7 7 7 7 7 6 6 6 6 6 6 6 6 6
14 14 15 15 15 15 15 15 14 14 12 12 13 13 13 10 12 12 10 9 9 9 8 8 8 7 7 7 6 6 5 5 5 5 5 5 5 5 5 5 5 5 5
13 13 13 13 13 13 14 14 14 12 12 12 12 12 11 12 11 11 9 9 8 7 8 6 6 6 7 5 5 4 4 4 4 5 5 5 5 5 4 4 4 4 4
13 14 14 14 13 13 14 14 14 13 12 11 12 12 11 10 10 9 8 8 7 6 5 5 5 5 4 4 4 3 3 3 3 3 4 4 4 4 3 3 3 3 3
12 12 12 13 13 13 13 14 13 13 12 12 12 12 11 9 8 8 7 6 6 5 5 4 3 3 3 3 3 3 2 2 2 3 3 3 3 2 2 2 1 1 1
12 12 12 13 12 12 13 13 12 12 12 11 11 10 9 9 8 8 6 6 5 4 4 3 2 2 2 3 2 2 2 1 1 1 0 0 0 -0 0 -0 -0 0 -0
12 12 12 12 12 12 12 12 12 11 11 10 9 9 8 8 7 7 6 5 4 3 3 2 2 2 2 2 2 1 -0 0 0 -0 -0 -0 -0 -1 -1 -1 -1 -1 -1
12 13 12 12 12 12 12 12 12 11 10 8 7 7 6 6 5 5 4 4 4 3 2 2 2 2 2 0 -0 -1 -1 -1 1 -1 -2 -1 -1 -1 -1 -1 -2 -2 -2
12 12 12 12 12 12 12 11 10 10 8 7 7 5 4 4 4 3 3 2 2 2 2 1 1 0 -1 -1 -3 -2 -2 -2 -2 -2 -3 -2 -2 -1 -1 -1 -2 -3 -3
12 12 12 12 11 11 10 9 8 7 6 5 5 4 4 2 2 2 1 1 -0 -1 -1 -1 -2 -3 -3 -4 -4 -4 -3 -4 -3 -3 -3 -2 -2 -2 -2 -2 -2 -3 -3
11 11 10 10 9 8 7 6 6 5 4 2 2 2 2 0 -0 1 1 -1 -2 -3 -3 -3 -3 -4 -4 -4 -5 -5 -4 -4 -3 -3 -3 -3 -2 -2 -3 -3 -2 -2 -3
9 8 7 6 6 5 4 5 5 3 1 -0 -1 -1 -1 0 -0 -1 -1 -2 -2 -4 -5 -5 -5 -5 -5 -6 -5 -6 -6 -6 -5 -4 -3 -5 -4 -4 -3 -3 -2 -2 -2

GFSMA_925_temp_072.txt.gz
Temp
15 15 16 17 17 17 16 16 16 15 15 15 15 15 16 16 16 16 14 12 12 12 12 12 11 11 10 10 10 10 10 10 9 9 8 8 8 8 7 7 7 7 7
15 15 15 16 17 17 17 17 16 16 16 16 15 15 15 15 15 15 15 13 12 12 12 12 11 11 11 10 10 10 10 10 9 9 8 8 8 7 7 7 7 7 7
15 15 16 16 17 17 17 17 16 16 16 16 15 15 15 15 15 15 15 15 12 12 12 12 12 11 11 10 10 10 10 9 9 9 9 8 8 7 7 7 7 7 7
16 16 16 16 16 16 16 16 16 16 16 16 15 15 15 15 15 15 15 15 15 14 12 12 12 11 11 11 10 10 10 9 9 9 9 8 8 8 7 7 7 7 7
18 16 16 16 15 16 16 16 16 16 16 16 16 15 15 15 14 15 15 14 14 15 15 13 11 11 11 11 11 10 10 9 9 9 9 8 8 8 7 8 7 7 7
16 16 16 15 15 16 15 15 15 16 16 16 16 15 15 15 15 15 15 14 14 14 14 14 12 12 11 11 11 11 11 10 10 9 9 9 8 8 8 8 8 8 8
15 15 16 15 14 15 16 15 15 15 15 15 15 15 15 14 14 15 15 15 15 14 14 14 14 14 13 12 11 11 11 11 11 10 9 9 8 8 7 7 7 8 8
14 14 14 14 14 15 15 14 14 13 14 13 16 17 17 16 15 15 15 15 15 15 14 13 13 13 13 14 11 11 11 11 11 11 10 9 8 8 8 7 7 6 7
14 13 15 16 16 14 15 14 13 14 15 13 14 17 18 19 18 17 15 15 14 13 14 12 13 13 12 12 12 11 11 11 11 11 11 10 9 8 8 7 7 6 6
13 14 14 15 15 15 14 14 14 15 15 15 13 14 16 17 18 17 16 15 14 13 12 12 13 11 11 12 11 12 11 11 11 11 10 10 10 10 9 8 7 7 6
12 14 14 14 15 16 15 15 16 15 15 16 15 15 14 14 15 16 18 17 14 13 12 12 11 11 12 12 11 11 12 11 11 10 10 10 9 9 9 9 8 7 7
12 13 13 14 14 16 15 16 16 16 16 15 16 15 16 16 16 16 16 16 15 14 12 12 12 12 11 11 10 11 11 11 10 9 9 9 9 9 8 9 9 8 7
12 13 13 14 15 15 16 16 15 16 15 15 15 15 15 15 15 14 13 12 12 11 11 11 11 11 11 11 11 11 11 10 10 9 9 9 9 8 8 7 8 8 8
13 13 14 15 15 15 16 15 14 15 15 14 14 15 15 15 14 13 12 10 10 9 9 10 10 11 10 11 9 9 9 9 8 8 8 8 7 7 7 7 7 7 7
14 13 13 13 14 14 15 14 15 15 15 15 15 15 15 14 14 12 11 11 11 10 9 11 11 9 9 9 8 8 8 7 8 8 7 7 7 7 7 6 7 7 6
15 15 14 14 14 15 15 15 15 15 15 15 15 15 14 14 12 11 11 10 10 10 11 12 9 9 8 8 7 7 7 7 7 7 7 6 6 6 6 6 6 5 5
15 15 14 15 15 16 16 15 15 15 16 15 15 14 14 13 11 11 11 10 9 9 9 8 8 8 7 7 6 7 6 6 6 6 5 6 5 5 5 5 5 5 5
15 15 15 15 15 15 15 15 15 15 15 15 14 13 12 12 11 11 11 10 9 8 8 7 7 6 6 6 7 5 5 6 6 6 5 5 5 4 4 4 4 4 4
15 15 15 15 15 15 15 15 15 15 15 13 12 12 12 11 11 11 9 8 7 7 7 7 6 6 7 4 4 4 5 5 5 5 4 3 3 3 4 4 4 3 3
15 15 15 14 14 14 14 14 13 13 13 13 13 12 12 12 11 9 8 7 6 6 6 6 7 4 4 4 4 5 6 6 5 5 4 3 2 2 2 1 1 1 0
14 15 15 14 14 13 12 12 12 12 12 12 11 11 12 11 10 9 8 7 6 6 5 6 4 4 3 4 4 6 5 4 4 4 4 3 3 3 2 2 1 1 0
14 15 15 15 14 13 13 13 13 11 12 12 11 10 10 9 8 7 7 6 5 4 3 3 3 3 4 5 4 4 4 3 4 4 2 2 2 2 2 2 2 0 -1
15 14 14 15 14 14 13 12 13 12 11 11 10 9 7 6 6 5 4 4 4 4 4 3 3 3 3 3 3 2 2 2 2 2 1 1 1 2 2 2 1 -0 -1
15 14 14 14 14 12 12 13 13 11 9 8 7 6 6 4 4 4 3 2 2 1 1 2 1 1 1 1 0 0 0 -0 -0 1 1 1 1 1 1 1 -0 -1 -1
13 13 12 12 12 12 11 11 10 8 6 5 3 3 3 3 2 2 2 -0 -2 -1 -1 -0 -1 -1 -1 -2 -2 -2 -1 -0 -0 1 1 -0 1 0 -0 -0 0 -0 -2
12 11 11 10 9 9 8 7 7 6 2 1 1 0 1 1 -0 -0 0 0 -2 -2 -3 -3 -3 -3 -3 -4 -4 -4 -2 -2 -1 -1 1 -2 -1 -1 -1 -1 -1 -2 -1

GFSMA_925_temp_075.txt.gz
Temp
16 16 16 16 17 17 16 16 18 18 17 17 17 17 18 18 18 16 14 13 12 12 12 12 11 11 11 10 10 10 10 10 9 9 9 8 8 8 8 8 8 8 8
16 16 16 17 17 18 18 18 18 17 17 17 17 17 18 17 18 17 14 13 12 13 12 12 12 11 11 10 10 10 10 10 10 9 9 8 8 8 8 8 7 7 7
16 17 17 18 18 19 18 18 18 18 18 18 17 17 17 17 17 17 15 14 13 12 12 12 12 11 11 11 10 10 10 10 10 9 9 8 8 8 8 8 8 7 7
16 16 17 18 19 18 18 18 18 18 18 18 18 17 17 17 17 17 17 15 14 13 12 12 12 11 11 11 10 10 10 10 10 9 9 9 8 8 8 8 8 8 8
16 17 17 17 18 18 18 18 18 18 18 18 18 17 17 17 16 16 17 16 16 15 14 13 12 12 11 11 11 11 10 10 10 9 9 9 8 8 8 8 8 8 8
15 16 16 17 17 17 17 17 17 17 17 18 18 17 17 17 16 16 16 16 16 15 16 14 13 12 11 11 11 11 11 10 10 10 9 9 9 8 8 8 7 8 8
16 17 17 17 16 17 18 17 17 17 17 17 17 16 16 16 16 16 16 16 16 16 15 16 14 13 13 12 12 11 11 11 11 10 10 9 9 9 8 8 8 7 7
15 16 16 16 16 17 17 16 16 16 17 16 17 17 17 16 16 16 17 16 16 16 16 15 15 15 15 13 12 12 11 12 12 11 10 10 9 9 8 8 8 7 7
15 16 16 15 15 16 16 16 15 16 16 15 15 17 16 17 17 17 16 16 16 16 16 15 15 14 14 14 13 12 12 11 11 11 11 11 10 9 9 8 8 8 7
14 16 14 14 14 15 15 15 15 15 16 16 14 15 16 17 16 16 17 16 16 16 15 15 14 13 13 13 13 13 12 12 11 11 11 11 10 10 9 9 9 8 7
14 14 14 13 15 15 15 15 14 15 15 15 15 15 16 16 16 16 18 17 16 16 15 14 13 13 13 12 12 12 12 12 11 11 11 10 10 10 10 10 9 9 8
13 13 13 13 15 15 15 15 16 15 15 15 16 16 16 16 17 17 17 18 16 16 15 13 13 13 13 13 11 11 12 12 11 11 10 10 10 10 9 9 9 9 9
12 12 12 13 15 15 14 14 15 16 15 15 15 16 16 16 16 16 16 16 16 16 13 11 13 13 13 12 11 12 12 11 11 11 11 10 10 9 9 9 8 8 8
12 12 12 12 14 14 13 14 15 15 15 15 15 15 16 16 16 16 16 16 15 13 12 12 12 11 11 12 11 11 11 11 10 10 10 9 9 9 8 8 7 7 7
14 13 12 13 13 14 13 14 14 14 15 15 15 15 15 15 16 15 15 15 14 14 14 13 11 12 12 12 11 11 10 9 9 9 9 8 8 8 7 7 7 7 7
14 14 13 13 13 13 14 14 15 15 14 15 15 15 15 15 15 15 14 14 13 12 13 13 12 12 11 11 10 9 9 8 8 8 8 8 7 7 6 6 6 6 6
15 15 14 14 15 15 15 15 15 15 15 15 15 15 15 15 15 15 14 13 12 11 11 11 11 11 10 9 8 8 8 7 7 7 7 6 6 6 6 6 6 6 5
16 16 16 15 15 15 15 15 15 15 15 16 16 16 16 15 15 14 13 12 11 11 10 10 8 8 8 7 7 7 8 8 8 8 7 6 6 6 5 5 5 5 5
16 16 16 16 16 16 16 16 16 16 16 16 16 16 16 15 14 12 12 11 11 10 10 9 7 7 6 7 7 6 6 6 6 7 6 6 5 5 5 5 5 5 4
16 16 16 16 16 16 16 16 16 16 16 16 16 16 15 14 12 11 11 11 11 9 8 8 6 6 6 6 5 5 5 5 6 7 7 6 5 4 3 3 3 3 3
16 16 16 16 16 16 16 16 16 16 16 15 15 14 13 13 12 12 11 10 9 8 7 6 6 6 5 5 5 5 5 6 7 6 6 5 5 4 4 4 3 3 3
16 17 16 17 16 16 16 16 15 14 13 13 12 12 11 11 12 11 11 11 10 8 6 6 5 5 5 5 5 5 5 5 5 6 5 5 4 4 3 3 4 3 2
16 16 16 16 16 16 16 15 15 13 12 12 12 11 11 11 11 10 8 8 6 6 6 5 4 3 3 4 5 4 4 4 4 5 4 4 3 3 2 3 3 2 1
16 16 16 16 16 16 16 15 14 13 12 12 11 11 10 9 7 7 6 5 4 3 2 2 3 2 1 2 3 3 3 3 3 2 2 2 2 2 2 2 2 1 1
16 16 16 15 15 15 15 15 14 12 11 10 8 7 6 5 3 4 4 2 1 0 1 1 -1 -2 -1 1 1 1 1 1 1 2 2 2 2 1 1 1 0 1 -0
16 16 14 13 14 13 13 12 12 10 6 4 3 1 1 2 0 1 2 -0 -2 -3 -3 -3 -1 -0 -0 -1 -1 -1 -1 -0 0 0 1 0 0 -0 -0 0 -0 -1 -1

GFSMA_925_temp_078.txt.gz
Temp
15 16 14 15 15 16 15 16 16 17 17 17 17 18 18 17 16 14 13 13 13 12 12 12 11 11 11 10 10 10 10 10 9 9 9 9 9 9 8 8 8 8 8
15 16 15 16 16 16 16 17 17 17 17 17 17 17 18 17 16 14 13 13 13 12 12 12 12 11 11 10 10 10 10 10 10 9 9 9 9 9 9 9 8 8 8
15 16 16 16 17 17 17 17 18 17 17 17 17 17 18 18 16 14 13 13 13 12 12 12 12 11 11 11 10 10 10 10 10 9 9 9 9 8 8 8 8 8 8
15 16 16 17 17 17 18 17 18 18 18 18 17 17 17 17 17 16 14 13 12 12 12 12 12 11 11 11 11 10 10 10 10 10 9 9 8 8 8 8 8 8 8
15 17 17 17 18 18 18 18 18 18 18 18 17 17 17 17 17 16 15 15 14 13 13 12 12 12 12 11 11 11 10 10 10 10 9 9 9 8 8 8 8 8 8
16 16 15 16 17 18 18 18 18 18 18 18 18 17 17 17 16 16 16 15 15 14 14 14 13 12 12 12 11 11 11 11 10 10 10 9 9 9 8 8 8 8 8
15 16 16 17 17 17 18 18 18 18 17 18 18 17 17 17 16 16 16 16 16 16 15 14 14 13 13 12 12 11 11 12 11 10 10 10 9 9 9 8 8 8 8
15 16 16 17 17 17 17 17 17 17 17 17 17 16 14 15 16 16 16 16 16 16 15 15 14 14 14 14 13 13 12 12 12 11 10 10 10 9 9 9 8 8 8
15 16 16 16 17 17 17 17 17 17 17 17 17 16 14 14 15 15 16 16 16 16 16 15 15 14 14 14 14 13 13 12 12 12 11 11 10 10 10 9 9 8 8
15 16 16 16 16 17 17 17 16 16 16 16 16 16 15 16 14 14 15 16 16 16 16 16 16 15 15 14 14 13 13 13 12 12 12 11 11 10 10 9 9 9 9
15 15 16 15 16 16 16 16 16 15 16 16 15 16 16 16 16 15 13 14 15 16 16 16 15 15 15 14 14 13 13 13 12 12 12 11 11 11 10 10 9 9 9
14 15 15 15 15 15 15 15 15 16 16 16 16 15 16 16 16 16 13 15 15 16 16 15 15 15 14 14 13 13 13 13 12 12 12 11 11 10 10 10 10 10 9
12 14 13 14 15 15 15 15 15 15 15 15 15 15 15 16 16 16 16 15 14 16 16 15 15 14 14 13 13 13 13 12 12 12 12 11 11 10 10 10 9 8 8
13 14 13 13 13 14 15 15 15 15 15 15 15 15 15 15 16 16 16 15 12 14 14 14 14 14 13 13 14 13 12 12 12 12 11 11 10 10 10 9 9 8 8
14 13 13 13 13 14 15 15 15 14 14 14 15 15 15 15 15 15 16 15 14 12 11 14 13 13 12 12 13 12 11 11 11 11 11 10 10 9 9 8 8 8 7
13 14 14 13 12 12 14 14 14 15 14 14 14 14 14 15 15 15 15 15 15 14 13 15 13 13 13 12 12 12 11 11 11 10 10 9 9 8 8 8 7 7 7
14 13 13 13 12 12 13 13 13 14 13 13 14 14 14 15 15 15 15 15 15 14 13 13 13 13 12 12 12 11 10 10 10 9 9 8 8 8 7 7 6 6 6
15 14 14 13 12 13 13 13 13 14 14 14 14 14 14 14 15 14 14 14 14 14 13 12 11 12 11 11 11 10 9 8 8 8 8 8 7 7 7 6 6 5 5
15 15 14 14 14 13 13 13 13 14 14 15 15 15 15 14 14 14 14 14 13 12 12 11 11 10 10 10 9 8 8 7 8 8 8 7 7 6 6 5 5 5 5
16 15 15 15 14 14 14 14 15 15 15 15 15 15 15 15 15 15 14 14 12 11 11 11 10 8 8 7 7 6 5 6 7 7 7 7 6 6 6 5 4 4 4
16 16 16 15 16 15 15 15 15 15 15 15 15 15 15 16 16 15 15 12 11 11 10 10 9 7 6 6 5 5 5 5 5 5 6 6 6 6 5 4 4 4 4
16 17 16 16 16 16 16 15 15 15 15 15 15 15 15 15 15 15 15 14 12 11 10 9 9 7 6 6 5 4 4 3 2 4 4 6 5 5 4 4 4 3 3
16 16 16 16 16 16 16 16 16 16 15 15 15 14 14 14 14 13 11 11 9 9 9 8 7 5 4 3 3 2 1 1 -0 1 3 4 4 4 3 3 3 3 3
17 16 16 16 16 16 16 16 16 16 15 15 14 13 13 12 12 11 10 7 4 3 4 5 5 3 2 2 3 1 1 -0 -1 1 2 2 3 2 2 2 2 2 2
17 16 16 16 16 16 16 16 16 16 14 13 12 12 11 10 9 7 5 3 0 -0 0 1 1 1 1 0 -0 -1 -2 -1 -0 1 2 1 2 1 1 1 1 1 1
17 16 16 16 16 15 15 16 16 14 11 9 7 6 4 5 4 3 3 1 -2 -2 -1 -1 -2 -2 -2 -2 -2 -1 -1 -0 -0 -0 -1 -0 -0 -1 -1 0 0 0 -0

GFSMA_925_temp_081.txt.gz
Temp
15 16 16 15 15 15 16 16 16 17 17 17 18 16 16 16 15 14 13 13 12 12 12 12 11 11 11 10 10 10 10 10 9 9 9 9 9 9 8 8 8 8 8
15 15 15 15 15 16 16 17 17 17 17 17 18 17 16 16 15 14 13 13 12 12 12 12 12 11 11 10 10 10 10 10 9 9 9 9 10 10 10 9 9 8 8
14 14 15 15 16 16 17 16 16 17 17 17 18 16 16 16 15 15 13 13 12 12 12 12 11 11 11 11 10 10 10 10 10 9 9 9 9 9 9 9 9 9 8
14 15 15 16 16 17 17 17 16 17 17 17 17 17 16 16 16 15 14 13 12 12 12 12 12 11 11 11 11 10 10 10 10 9 9 9 9 9 9 9 9 9 8
14 15 15 16 17 17 17 16 17 17 17 17 17 17 17 15 16 15 15 14 13 12 12 12 12 12 11 11 11 11 11 10 10 10 9 9 9 9 9 8 8 8 8
14 16 16 16 17 17 17 17 17 17 17 17 17 17 17 16 16 15 15 15 14 14 13 13 12 12 12 12 11 11 11 11 10 10 10 9 9 9 8 8 8 8 8
15 16 16 16 17 17 17 17 17 17 17 17 17 17 16 17 16 16 15 15 14 14 14 14 13 13 13 12 12 11 11 11 11 11 10 10 9 9 9 8 8 8 8
15 16 16 16 16 17 17 17 18 17 18 17 16 16 13 15 16 16 16 15 15 15 14 14 14 14 14 13 13 12 12 12 12 11 11 10 10 10 9 9 9 8 8
15 16 16 16 15 16 17 17 18 17 17 17 17 16 12 12 14 16 16 16 16 15 15 15 14 14 14 14 14 14 13 13 12 12 12 11 11 11 10 9 9 9 9
15 15 16 16 16 15 17 17 17 17 17 16 16 17 16 16 12 12 15 16 16 16 16 16 15 15 15 14 14 14 14 14 13 12 12 12 11 10 11 11 10 9 9
15 15 16 16 16 17 17 17 17 17 17 17 16 16 16 15 15 13 12 14 15 16 16 16 16 15 15 15 15 14 14 14 13 13 12 12 12 11 10 10 10 10 9
14 15 15 16 16 16 16 17 17 17 17 17 17 16 16 15 14 14 12 13 14 16 16 16 16 16 16 15 15 14 14 14 13 13 13 12 12 11 11 11 10 10 10
13 15 15 15 16 16 16 16 16 16 16 16 16 16 16 16 16 16 16 14 13 16 16 16 16 16 16 15 15 15 14 14 13 13 13 12 12 12 11 11 10 10 10
13 14 15 15 15 16 16 16 16 16 16 16 16 15 16 16 15 16 15 14 12 13 15 15 16 16 16 15 15 15 14 14 13 13 12 12 12 12 11 11 10 10 9
13 13 14 14 14 15 15 15 15 15 15 15 15 15 15 16 16 15 15 15 14 13 12 15 14 16 16 15 15 14 13 14 14 13 12 11 11 11 11 10 10 10 9
13 13 13 13 13 14 14 14 15 15 14 15 15 15 15 15 15 15 15 15 15 13 13 15 15 15 15 15 15 14 14 13 13 12 11 12 11 10 10 10 9 9 8
13 13 13 12 12 12 13 13 14 14 13 13 13 14 14 15 14 15 14 15 14 13 13 13 14 14 15 14 14 14 13 12 12 12 11 10 10 10 9 9 8 8 7
13 14 13 12 12 12 12 12 12 13 13 13 13 13 13 13 14 14 14 14 13 13 13 12 13 13 13 14 13 13 12 11 11 11 10 9 9 8 8 7 7 6 6
13 13 13 13 13 12 12 12 12 12 13 13 13 13 13 13 13 13 13 13 13 13 12 12 13 13 13 12 11 11 10 10 9 9 8 8 7 7 6 6 6 5 5
14 13 13 13 13 13 12 12 12 12 12 13 13 13 13 13 13 13 13 13 13 12 12 11 12 11 11 10 10 8 7 8 7 6 6 7 6 5 5 5 5 5 4
14 14 14 13 13 12 12 12 12 12 12 12 13 13 13 13 13 14 13 13 12 12 12 11 11 11 8 7 8 8 7 6 5 5 5 5 5 4 4 4 4 3 3
14 14 14 14 13 13 13 13 13 12 12 12 12 13 13 13 14 14 14 15 13 12 12 11 12 11 9 8 8 7 6 4 3 4 4 2 3 3 1 3 3 3 3
15 15 14 14 14 14 14 14 13 13 13 13 13 13 13 13 14 14 14 14 13 12 12 11 10 11 9 9 7 5 4 2 0 0 1 1 1 -0 1 2 2 3 3
15 15 15 15 14 14 14 15 15 14 14 13 13 13 13 14 14 14 13 11 9 8 8 7 7 7 6 5 5 4 2 1 -0 -0 -1 -1 -1 1 2 1 2 2 2
15 15 15 15 15 15 15 15 15 15 13 13 13 14 14 14 14 13 11 8 4 2 2 3 3 2 2 2 2 1 -0 -1 -2 -2 -2 -2 -0 0 1 2 1 1 1
16 15 15 15 15 15 15 15 15 15 12 12 11 11 11 12 11 10 10 5 -0 -2 -1 -1 -1 -1 -1 -2 -2 -1 -2 -2 -2 -3 -3 -2 -1 -1 -2 -1 -0 -1 -1

GFSMA_925_temp_084.txt.gz
Temp
15 15 14 15 16 16 16 16 16 17 17 16 16 16 15 15 14 14 13 13 13 12 12 12 12 11 11 11 10 10 10 10 10 9 9 9 9 9 8 9 8 8 8
15 14 15 15 15 16 16 16 17 17 17 16 16 16 16 15 14 14 13 13 13 12 12 12 12 11 11 10 10 10 10 10 10 9 9 9 9 9 10 9 8 8 8
16 15 14 14 15 16 16 17 17 17 18 16 16 16 16 15 14 14 13 13 12 12 12 12 12 11 11 11 10 10 10 10 10 9 9 9 10 10 10 9 9 9 9
15 15 15 15 15 16 16 16 17 17 17 16 16 15 15 15 14 14 13 13 12 12 12 12 12 11 11 11 10 10 10 10 10 10 9 9 9 10 10 10 9 9 9
15 16 16 16 16 15 15 16 16 17 17 17 16 15 15 15 14 14 13 13 13 12 12 12 12 11 11 11 11 11 11 10 10 10 9 9 9 9 10 10 10 10 10
15 15 15 16 16 16 16 16 17 17 17 17 16 15 15 15 15 14 14 14 13 13 13 12 12 12 12 12 11 11 11 11 11 10 10 10 9 9 9 9 10 10 10
14 14 14 15 15 15 16 16 16 16 17 17 16 13 14 14 14 14 15 14 13 13 13 13 13 13 12 12 12 11 11 11 11 11 10 10 10 9 9 9 10 10 9
14 14 15 16 16 15 16 17 16 16 16 17 16 15 12 13 13 14 14 14 14 14 14 13 13 13 13 13 12 12 12 12 12 11 11 10 10 10 9 9 9 9 9
13 14 14 16 16 16 16 16 17 17 16 16 17 16 12 12 13 14 14 14 14 14 14 14 14 14 14 14 14 13 13 12 12 12 12 11 11 11 10 10 10 9 9
14 14 14 15 16 16 17 16 17 17 16 15 16 17 16 15 12 11 14 14 14 14 15 15 15 15 14 14 14 14 14 14 13 13 12 12 11 11 11 11 10 10 9
14 14 15 15 15 16 16 16 17 17 17 16 16 16 15 15 15 12 11 13 14 15 15 15 15 15 15 15 15 15 15 15 14 14 13 13 12 12 11 10 11 11 10
14 14 15 15 16 16 15 15 16 17 17 17 17 16 16 14 13 13 11 12 14 15 16 15 15 16 16 16 15 15 15 15 15 14 14 13 13 12 12 11 11 10 10
13 14 15 15 15 16 15 15 16 17 17 17 17 16 16 17 16 15 15 13 13 15 16 16 16 16 16 16 16 16 15 15 15 14 14 14 13 13 12 12 11 11 10
13 14 14 15 15 16 16 16 16 16 17 17 17 16 16 16 16 16 16 15 11 13 14 15 17 17 17 16 16 16 15 15 15 14 14 14 13 13 12 12 12 11 10
13 13 14 14 15 15 15 16 16 16 16 16 16 16 16 16 16 16 15 16 14 12 13 15 15 16 16 17 16 16 16 16 15 15 14 13 13 12 12 12 11 11 10
13 13 13 14 14 15 15 15 15 16 15 16 16 16 16 16 15 15 14 15 14 13 13 15 15 15 16 16 16 16 16 16 15 15 14 13 12 12 12 11 10 10 10
13 13 13 13 13 14 14 15 14 14 15 15 15 15 15 15 15 15 14 14 14 13 12 13 14 15 15 15 15 15 15 15 15 15 15 14 12 11 11 10 9 9 8
13 13 13 13 13 13 13 13 13 13 13 13 13 13 14 14 13 14 14 13 13 13 13 13 13 13 13 14 14 14 13 14 14 14 13 13 12 11 11 9 8 7 7
13 13 13 13 12 12 12 12 12 13 13 12 13 13 13 13 13 13 13 13 12 13 12 12 13 13 13 12 13 13 12 13 13 12 12 12 10 9 7 6 6 5 5
14 13 13 13 12 12 12 12 11 12 12 12 12 12 13 12 12 12 12 12 12 12 12 11 12 12 12 12 11 11 10 11 11 10 10 9 9 8 7 6 4 4 3
14 13 14 13 13 12 12 12 11 11 11 11 12 12 12 12 13 13 12 12 12 12 12 12 12 12 11 9 10 10 9 9 9 8 8 7 7 6 5 4 4 2 1
13 13 13 13 13 13 13 12 12 11 11 11 11 11 11 12 12 13 13 13 13 12 12 12 12 12 12 9 10 10 8 6 4 5 5 5 4 4 4 3 1 1 1
13 13 13 13 13 12 13 13 13 12 11 11 11 11 11 11 11 12 12 12 12 13 13 13 12 12 12 12 9 8 8 7 5 3 3 1 1 1 0 1 0 -0 -1
13 13 13 13 13 13 13 13 13 13 12 12 11 11 11 11 11 12 12 12 12 12 12 11 11 11 10 9 9 7 5 3 1 0 1 -1 -0 0 0 -0 -1 -1 -2
14 14 14 13 13 13 13 13 13 13 12 12 12 12 11 11 12 12 12 11 9 7 6 6 6 5 5 5 5 5 1 1 -2 -2 -2 -1 -2 -2 -1 -1 -2 -2 -1
13 14 14 14 13 13 14 14 14 12 11 11 12 11 12 12 12 12 12 8 4 1 -0 -1 -1 -1 -0 -0 1 1 0 -1 -2 -4 -5 -4 -4 -3 -3 -2 -3 -3 -2

GFSMA_925_temp_087.txt.gz
Temp
14 15 15 15 16 15 16 16 16 15 15 15 15 15 15 14 13 13 13 13 13 13 13 13 12 12 11 11 11 10 10 10 10 10 9 9 9 9 9 9 9 8 8
15 15 14 14 15 16 16 16 16 15 16 16 15 15 15 14 14 13 13 13 13 13 13 12 12 12 11 11 10 10 10 10 10 9 9 9 9 9 9 8 8 8 8
15 14 14 15 15 15 16 15 15 15 16 15 15 15 15 14 14 13 13 13 12 12 12 12 12 12 11 11 10 10 10 10 10 9 9 9 9 9 10 9 9 9 9
14 14 14 14 15 15 15 15 15 15 16 15 14 15 15 14 14 13 13 12 12 12 12 12 12 11 11 11 10 10 10 10 10 9 9 9 10 10 10 10 10 10 10
14 13 14 14 15 15 15 15 15 16 15 15 15 15 14 14 13 13 13 12 12 12 12 12 12 11 11 11 11 11 11 10 10 10 9 9 9 10 10 10 10 10 10
14 14 14 14 15 15 15 15 16 15 16 15 14 14 14 14 13 13 13 12 12 12 12 12 12 11 11 11 11 11 11 11 10 10 10 10 9 9 9 10 10 10 10
14 15 15 15 15 15 15 15 16 16 14 15 14 12 12 13 13 13 13 13 12 12 12 12 12 12 12 12 12 11 11 12 11 11 11 10 10 9 10 9 10 10 10
13 13 14 13 14 14 15 15 15 15 15 15 14 13 11 12 12 12 12 13 13 13 13 13 13 13 13 12 12 12 12 12 12 12 11 11 10 10 10 9 9 9 9
13 13 13 13 14 15 14 15 15 16 15 15 15 15 11 12 12 13 12 13 13 13 14 13 13 13 13 13 13 13 13 13 12 12 12 12 11 12 11 11 10 9 10
13 13 13 13 14 15 15 15 16 16 16 15 15 16 16 15 12 11 12 13 13 14 14 14 14 14 14 14 14 14 14 14 13 13 12 12 12 11 12 11 11 10 10
13 13 13 12 14 14 16 15 16 16 16 16 15 15 15 15 15 12 11 12 13 13 14 14 14 15 15 14 14 15 15 15 14 14 13 13 13 12 11 11 11 11 11
13 13 13 13 13 15 16 16 16 16 16 16 16 16 16 14 13 13 11 11 13 13 14 15 15 15 15 15 15 15 15 15 15 15 14 14 14 13 13 12 11 11 11
12 13 13 13 14 15 16 16 16 16 15 15 16 16 16 15 16 16 15 13 12 14 15 15 16 16 16 16 16 16 15 15 15 15 15 15 14 14 13 13 12 12 11
12 13 13 14 14 15 15 15 15 16 16 14 15 16 16 16 16 16 16 14 12 12 14 15 16 16 16 16 17 17 16 16 16 16 15 15 15 14 14 13 13 13 12
13 13 14 14 14 15 15 15 15 16 14 14 15 15 15 15 16 16 16 16 14 12 11 15 15 17 17 17 16 16 16 16 17 16 16 15 15 14 14 13 13 12 12
13 13 13 14 14 14 14 15 15 14 13 13 13 14 15 15 16 16 15 15 15 14 13 15 15 16 17 16 16 16 16 16 16 15 15 15 15 14 13 13 12 12 11
13 13 14 14 14 14 14 14 14 13 13 13 14 14 15 15 15 15 15 14 13 13 12 13 14 15 15 15 15 15 16 16 16 15 15 15 14 14 14 13 13 11 11
13 13 13 13 14 13 13 13 13 13 13 13 13 13 13 14 13 14 14 14 13 14 14 12 13 13 14 14 15 15 15 15 15 15 15 14 14 14 13 12 11 11 10
13 13 13 13 12 12 12 13 13 13 13 13 13 13 13 13 13 12 12 12 12 12 12 11 13 13 13 13 13 13 13 13 13 14 14 14 14 13 13 12 10 10 9
13 13 14 14 13 13 12 12 12 12 12 12 13 13 13 12 12 12 12 12 12 11 11 11 12 12 13 12 12 11 11 12 12 12 12 13 12 12 12 10 9 8 7
13 13 13 13 14 14 13 13 12 11 11 12 12 12 12 12 12 12 12 12 11 11 12 12 12 12 12 11 10 12 10 10 11 11 11 11 11 10 9 8 7 6 5
12 13 13 12 12 13 13 14 14 12 11 11 11 11 11 12 12 12 12 13 13 11 11 12 12 12 12 12 12 10 11 10 8 10 9 7 8 6 6 6 5 4 3
12 12 12 12 12 12 12 13 13 12 11 11 11 11 11 10 11 10 11 12 12 12 12 12 11 11 12 12 12 10 10 11 9 8 7 3 3 3 3 3 3 2 0
12 12 12 12 12 12 12 12 12 12 11 11 11 11 10 11 10 10 10 10 10 11 11 11 10 11 11 11 11 11 10 9 4 2 2 -0 -0 -0 -0 -0 -0 -0 -0
7 9 12 12 12 12 12 12 12 11 11 11 11 11 11 11 11 11 10 9 9 8 9 8 8 7 7 8 8 8 6 3 -1 -2 -0 -1 -2 -2 -2 -1 -1 -2 -2
4 5 7 10 10 9 8 10 11 11 11 11 11 11 11 11 11 11 10 9 9 6 5 1 1 -1 -0 1 2 3 3 3 -2 -4 -3 -3 -4 -3 -4 -4 -4 -4 -5

GFSMA_925_temp_090.txt.gz
Temp
15 15 16 14 15 14 16 15 16 16 16 15 14 15 14 13 13 13 13 13 13 13 13 13 12 12 12 11 11 11 11 11 10 10 10 10 10 9 9 9 9 9 9
15 15 15 15 15 14 15 15 16 15 15 15 15 14 14 14 13 13 13 13 13 13 13 13 12 12 12 11 11 11 11 10 10 10 10 9 9 9 9 9 9 9 9
14 15 15 14 15 15 15 15 15 15 15 14 14 14 14 14 13 13 13 13 13 13 13 13 12 12 12 11 11 10 10 10 10 10 9 9 9 9 9 9 9 8 9
14 14 14 14 14 15 15 15 15 15 14 14 14 14 14 14 14 13 13 13 13 12 12 12 12 12 11 11 11 10 10 10 10 10 9 9 9 9 9 8 9 8 9
14 14 14 13 14 15 14 15 15 15 14 14 13 14 14 13 14 13 13 12 12 12 12 12 12 12 11 11 11 11 11 10 10 10 9 9 9 9 10 9 11 10 10
14 14 14 14 14 14 14 14 14 15 15 14 12 12 13 12 13 13 13 12 12 12 12 12 12 12 11 11 11 11 11 11 10 10 10 9 9 10 11 10 11 11 11
14 14 14 13 13 14 14 14 14 14 12 13 12 11 11 12 12 12 12 12 12 12 12 12 12 12 11 11 11 11 11 12 11 11 10 10 10 9 10 10 11 11 11
14 14 14 13 14 14 14 14 14 13 12 13 13 12 10 11 11 12 12 12 12 12 12 12 12 12 12 12 12 12 11 12 12 12 11 11 11 10 10 10 10 10 11
14 14 14 14 14 14 14 14 14 14 13 13 14 14 10 12 11 12 12 12 12 12 13 13 12 12 13 12 12 12 12 13 12 12 12 12 12 12 12 11 11 11 11
14 14 13 13 13 13 13 14 14 14 14 13 13 15 16 14 12 11 12 13 12 14 13 13 13 13 13 13 13 13 13 13 13 13 12 12 12 12 12 12 12 12 11
13 12 13 13 12 12 13 14 15 15 15 14 14 14 15 15 15 12 11 11 11 13 13 14 14 14 14 14 14 14 14 14 14 13 13 13 13 12 12 12 12 12 11
12 12 12 12 12 12 13 14 15 15 15 15 15 15 15 14 13 13 11 11 12 12 15 15 14 14 15 15 15 15 15 15 15 14 14 14 14 13 13 12 12 11 11
12 12 12 12 11 11 12 15 15 15 16 16 16 15 15 16 16 16 15 13 12 14 14 16 15 15 15 16 16 16 15 15 15 15 15 15 14 14 14 14 13 12 12
12 13 13 12 12 11 12 13 14 15 15 16 15 15 15 15 16 16 16 15 12 13 14 14 15 15 16 17 17 17 17 16 16 16 16 15 15 15 15 14 14 14 13
12 13 13 13 12 12 13 14 15 15 15 15 15 15 15 15 15 15 16 16 15 13 13 15 14 16 17 17 17 16 16 16 16 16 16 16 15 15 15 15 15 14 14
13 13 13 13 13 13 13 14 14 15 15 15 14 15 15 14 14 14 14 15 15 15 14 15 15 15 15 16 16 16 16 16 16 16 16 16 16 16 16 15 15 15 14
12 13 13 13 13 13 14 14 14 14 14 13 13 14 15 15 13 12 13 13 12 13 14 14 15 15 15 15 15 15 16 16 16 16 16 16 16 16 16 15 15 14 14
13 13 13 13 13 13 14 14 14 13 13 13 13 13 13 13 12 12 12 12 13 13 13 13 13 13 13 14 15 14 15 15 15 15 15 15 16 15 15 15 14 14 13
13 13 13 13 13 13 13 13 13 13 13 13 13 13 12 12 12 12 12 12 12 12 12 12 13 13 13 13 13 13 13 13 13 14 15 15 15 15 14 14 13 13 13
14 14 13 13 13 13 13 13 13 12 12 12 13 13 12 12 12 12 12 12 12 12 11 11 12 12 12 12 12 12 11 12 12 12 13 14 14 13 13 12 13 12 11
13 13 14 14 14 14 13 13 12 12 12 11 11 12 12 12 12 12 12 12 11 11 11 11 11 11 11 11 11 11 10 11 11 11 11 11 11 11 12 11 11 11 10
12 12 12 12 13 13 13 13 14 13 12 11 11 11 11 11 12 12 12 13 13 11 11 11 11 12 12 12 12 12 11 11 11 11 10 9 9 9 10 10 11 9 8
12 12 12 12 12 12 12 12 13 12 12 11 12 12 11 11 11 11 11 11 11 12 12 12 11 11 12 12 12 11 11 11 11 11 11 8 7 6 6 6 5 5 5
8 9 10 11 12 12 12 12 12 12 11 11 11 11 11 11 11 11 10 10 10 11 11 11 10 11 11 11 11 11 11 11 9 7 7 4 1 1 0 1 0 0 0
5 5 5 6 7 8 5 7 9 10 11 11 11 11 11 11 11 11 10 10 9 9 9 9 8 7 7 8 9 8 7 7 2 -0 -0 -0 -2 -2 -2 -3 -3 -2 -2
2 2 1 1 1 1 1 4 6 7 8 10 10 10 10 9 9 10 10 10 9 9 7 4 2 -1 -1 -0 1 1 3 5 2 -3 -4 -3 -3 -3 -4 -5 -5 -5 -5

GFSMA_925_temp_093.txt.gz
Temp
15 14 14 15 16 15 14 14 15 14 14 15 14 15 14 14 14 14 14 14 14 14 13 13 13 12 12 12 12 11 11 11 11 11 10 10 10 10 10 9 9 9 9
14 14 14 15 15 16 14 14 14 14 14 14 14 13 14 13 13 14 14 14 14 14 13 13 12 12 12 11 11 11 11 11 11 11 10 10 10 10 9 9 9 9 9
14 14 14 14 15 14 14 14 13 13 14 14 14 13 13 13 13 13 14 14 13 13 13 13 13 13 12 11 11 11 11 11 10 10 10 10 9 9 9 9 9 9 9
14 14 14 14 14 14 14 13 13 13 14 14 14 13 14 13 13 13 13 14 13 13 13 13 13 13 12 11 11 11 11 10 10 10 10 9 9 9 9 9 10 10 10
14 14 14 14 14 14 13 13 13 14 14 14 14 13 13 13 13 13 13 13 13 13 13 13 13 12 12 12 11 11 11 11 10 10 10 9 9 9 11 11 11 10 10
14 14 13 14 14 13 12 13 14 13 14 14 13 13 13 13 13 13 13 13 13 12 12 13 12 12 12 12 11 11 11 11 11 10 10 9 9 10 10 12 11 11 10
13 13 13 13 13 12 13 13 13 13 13 13 12 12 12 11 12 12 12 13 12 12 12 12 12 12 12 11 11 11 12 12 11 11 10 10 10 10 11 11 12 11 10
14 14 13 13 12 12 12 13 13 13 13 12 14 14 13 12 11 11 12 12 12 12 12 12 12 12 12 12 11 11 11 12 12 11 11 11 10 10 10 10 11 12 11
14 14 14 14 13 13 13 13 13 13 13 12 13 16 14 16 13 12 11 12 12 11 12 11 11 11 12 12 12 12 12 12 12 12 12 12 12 12 12 11 11 12 11
13 14 14 14 14 13 13 13 13 14 13 13 13 14 15 14 16 13 11 11 11 11 12 12 12 13 13 13 12 12 13 13 13 12 12 12 12 12 12 12 12 12 12
13 13 14 14 13 13 13 13 13 13 14 14 13 14 14 14 15 14 14 12 11 12 13 13 12 13 13 13 13 14 14 14 13 13 13 13 13 12 12 12 12 12 12
13 13 13 13 13 13 13 13 13 14 14 14 14 14 15 14 14 14 15 13 14 13 14 14 13 13 15 15 15 15 15 15 15 14 14 14 13 13 13 13 12 12 12
12 12 13 12 12 13 12 13 12 13 14 14 14 14 15 16 17 17 16 15 15 14 14 13 15 14 14 17 16 16 16 16 15 15 15 15 14 14 14 14 13 13 12
12 12 12 12 12 12 11 11 11 12 13 14 15 15 15 15 16 16 16 16 15 15 14 15 16 16 16 17 15 16 16 17 17 16 16 15 15 15 15 14 14 14 13
12 12 12 12 12 11 11 10 11 12 15 14 14 15 15 15 15 14 15 15 16 16 17 15 14 16 17 16 16 15 15 17 17 17 17 16 16 16 15 15 15 15 15
12 12 12 12 11 11 11 11 11 13 13 14 13 15 15 14 14 14 15 14 14 14 15 16 16 16 16 16 15 15 15 16 16 16 16 16 17 16 15 15 15 15 15
12 12 12 12 12 11 11 11 12 13 13 13 13 14 15 15 13 14 14 13 13 12 12 13 14 15 15 15 15 16 15 15 15 15 16 16 16 16 15 15 15 15 15
12 12 12 12 12 12 12 12 12 12 12 13 13 12 13 14 13 12 12 12 12 13 12 12 13 14 13 14 15 15 15 15 15 15 15 15 16 16 16 16 16 16 15
12 12 12 12 12 12 12 12 13 12 12 13 13 13 13 13 13 13 13 13 12 12 12 12 13 14 14 14 13 13 13 13 13 14 14 15 15 14 15 15 15 15 15
14 13 13 13 12 12 12 12 12 12 12 12 13 13 13 13 13 13 13 13 13 13 13 12 12 13 14 14 14 13 13 13 12 12 12 12 13 14 14 13 13 13 13
13 13 12 12 13 13 12 12 12 12 12 12 12 12 12 12 13 13 13 13 13 13 13 13 12 13 13 13 13 13 12 12 13 13 13 12 11 11 11 12 11 12 12
14 13 13 13 12 12 12 13 13 12 12 12 12 12 12 13 13 13 12 13 13 13 12 13 13 13 13 13 13 13 13 13 12 12 11 11 11 11 10 9 9 9 10
10 11 11 12 12 11 11 11 12 12 12 12 12 12 12 12 12 11 11 11 12 12 12 13 12 11 12 12 12 12 12 11 12 12 12 11 10 8 6 6 7 6 6
6 6 7 7 6 5 5 7 10 11 11 11 11 11 11 11 11 11 11 10 10 11 11 11 9 10 10 10 10 10 10 11 11 9 9 8 3 -1 -1 -0 -0 0 0
3 2 1 2 1 1 3 5 7 9 9 9 10 10 9 9 9 10 10 10 10 10 9 9 6 5 4 3 5 7 6 6 8 2 1 0 -1 -4 -5 -5 -5 -4 -3
0 -1 -2 -2 -2 -2 -0 2 5 5 5 5 5 3 1 2 3 5 7 7 7 7 6 3 2 -0 0 0 1 1 1 2 2 -0 -2 -2 -3 -3 -5 -6 -5 -4 -4

GFSMA_925_temp_096.txt.gz
Temp
16 16 17 17 16 15 15 15 15 15 16 16 17 17 17 17 17 18 16 14 14 14 13 13 13 13 13 13 12 12 11 11 11 11 11 11 11 11 10 10 10 10 10
16 16 16 16 15 14 15 15 15 15 16 17 16 16 16 17 16 17 17 14 14 14 13 13 13 13 12 13 12 12 11 11 11 11 11 10 10 10 10 10 10 9 9
15 15 15 15 14 15 15 14 15 15 16 17 17 17 17 17 17 17 17 15 14 14 14 14 13 13 12 12 12 12 11 11 11 11 11 10 10 10 10 10 9 9 9
15 15 15 15 14 15 14 15 14 15 17 17 17 17 17 17 16 16 17 16 15 15 13 14 13 13 13 12 12 12 11 11 11 11 10 10 10 10 10 10 9 10 9
14 14 15 14 14 14 15 15 14 15 16 17 17 17 17 17 16 16 16 16 16 15 14 13 13 13 13 12 12 12 12 11 11 11 10 10 10 9 9 9 9 10 11
14 14 14 14 14 13 13 13 14 15 16 17 17 17 16 17 16 16 15 16 16 15 14 14 13 13 12 12 12 12 12 11 11 11 11 10 10 9 9 9 10 10 10
14 14 14 14 13 13 13 13 14 15 16 17 17 15 15 15 15 15 15 16 16 15 15 14 15 15 13 12 12 12 12 12 12 11 11 10 10 10 9 10 10 11 11
14 14 14 13 13 13 13 13 15 15 15 16 16 16 14 14 14 15 15 15 16 16 15 15 15 15 15 14 12 12 12 12 12 12 11 11 10 10 10 10 11 11 11
13 13 13 13 13 12 12 13 15 15 15 15 16 17 16 17 16 15 14 15 15 15 15 15 14 14 14 14 14 12 12 12 12 12 12 12 12 12 12 12 12 12 12
13 13 13 13 13 13 13 13 14 15 16 16 16 18 18 19 19 16 15 15 14 14 14 15 14 14 14 13 13 13 13 13 13 13 12 12 12 12 12 12 12 12 12
13 13 13 13 12 12 13 14 15 15 16 16 15 16 16 16 18 19 17 16 14 14 14 14 14 14 13 13 13 13 13 13 14 14 13 13 13 12 12 12 12 12 12
13 13 13 13 13 12 13 13 13 14 14 15 15 16 17 16 17 17 19 18 16 16 15 14 13 13 13 13 13 13 13 15 15 15 14 14 14 13 13 13 12 12 12
13 12 13 13 13 13 13 13 13 13 14 14 14 16 16 17 17 17 19 19 18 18 15 14 14 13 13 14 14 14 15 15 16 15 15 15 14 14 14 14 13 13 13
12 13 12 12 13 12 12 12 13 12 12 12 14 15 16 16 17 17 18 18 18 18 18 18 15 15 14 14 14 16 16 15 16 16 15 15 15 15 15 15 14 14 14
12 12 12 12 12 12 11 12 12 12 12 12 13 14 15 15 15 16 16 17 18 18 18 18 16 15 15 15 14 16 15 16 16 16 15 15 15 15 15 15 15 15 15
12 12 12 12 12 11 11 11 11 11 12 12 12 13 14 15 14 15 15 16 16 16 16 17 17 17 16 15 15 16 15 17 16 16 16 15 15 15 15 15 15 15 15
12 12 12 12 11 11 11 10 10 10 11 12 13 13 13 14 14 15 14 14 13 13 13 13 14 15 16 16 15 15 15 16 16 16 16 16 16 15 15 16 15 15 16
12 13 12 12 12 11 11 10 10 11 11 14 14 12 13 13 13 13 13 13 13 13 12 12 13 14 16 15 14 15 16 16 15 16 16 16 16 16 16 16 16 16 16
13 13 14 12 12 12 11 11 12 12 13 14 13 13 14 13 13 13 13 12 12 12 13 13 14 15 15 16 15 15 15 15 15 14 14 15 16 16 15 16 16 15 15
14 14 14 14 14 13 13 13 13 14 13 13 12 13 13 13 13 13 14 14 15 15 15 14 15 15 15 15 15 16 16 15 15 15 15 14 14 14 14 14 14 14 13
14 13 13 13 13 13 13 13 13 12 12 12 12 12 12 13 13 14 15 15 15 15 15 15 15 15 15 16 16 16 16 16 15 15 15 15 15 14 13 12 12 12 12
12 13 13 13 13 11 12 12 13 12 12 12 13 13 13 13 13 13 14 14 14 14 14 14 14 14 14 15 15 15 15 14 13 13 13 13 14 14 13 13 12 11 11
9 10 10 10 9 7 7 10 12 12 12 13 13 13 14 14 14 13 13 13 13 13 13 13 13 13 13 13 13 13 13 13 13 13 12 13 10 7 2 2 2 6 7
4 4 4 3 3 3 5 6 9 10 10 10 10 9 10 10 10 10 11 11 11 11 11 10 9 9 9 9 9 9 8 7 8 8 8 4 2 -1 -1 -1 -1 -1 0
1 -0 -1 -0 -1 0 2 6 7 7 6 5 4 3 4 4 4 6 7 8 9 9 6 7 6 3 1 2 3 4 5 4 6 6 3 2 -0 -2 -3 -4 -4 -4 -3
-0 -1 -2 -2 -2 -2 -1 2 3 3 2 -0 -1 -1 -0 1 3 4 5 5 5 3 2 1 -0 -0 -1 -1 -0 0 -0 -0 2 1 -3 -2 -2 -3 -5 -6 -5 -5 -5

GFSMA_925_temp_099.txt.gz
Temp
18 18 18 18 17 17 16 16 15 15 14 15 17 17 19 20 20 18 15 15 15 15 14 14 13 13 14 13 13 12 12 12 12 11 11 11 11 11 11 11 10 10 10
17 17 17 17 16 17 16 15 15 16 15 16 17 18 19 19 19 20 16 15 15 14 14 14 14 13 13 12 12 12 12 12 12 11 11 11 11 11 10 10 10 10 10
16 17 16 16 16 16 15 15 16 16 15 16 17 18 18 18 18 19 17 16 14 14 14 14 14 13 13 12 13 12 12 12 11 11 11 11 11 11 10 10 10 10 10
16 16 16 16 16 15 15 15 16 16 15 16 18 19 19 18 18 19 18 16 15 14 14 14 14 14 13 13 12 12 12 11 11 11 11 11 10 10 10 10 10 10 10
16 16 16 16 15 15 14 15 15 16 15 17 19 19 19 19 18 19 18 17 16 15 14 14 14 14 13 13 12 12 12 12 11 11 11 10 10 10 10 10 10 9 10
16 16 15 15 15 14 14 15 14 15 15 17 19 18 18 18 18 18 18 18 18 16 16 14 13 13 13 13 13 12 12 12 12 11 11 11 10 10 10 10 10 9 9
15 15 14 14 14 14 14 15 15 15 16 18 18 17 17 17 16 16 16 16 18 17 16 15 14 15 13 13 13 12 12 12 12 12 11 11 10 10 10 10 10 9 9
15 15 14 14 13 13 13 13 14 15 15 16 17 16 15 14 15 15 15 16 18 18 17 16 16 16 16 13 12 12 12 12 12 12 12 11 11 11 11 11 11 10 10
14 14 14 14 13 13 13 13 14 14 15 16 16 17 16 17 16 15 15 16 18 18 18 17 17 17 17 16 14 13 12 12 12 12 12 12 12 12 12 12 12 12 12
14 14 13 13 13 13 13 13 13 14 15 16 16 17 18 19 18 16 15 15 15 17 17 17 16 16 16 16 15 14 13 13 13 13 12 12 12 12 13 12 12 12 12
14 13 13 13 13 13 13 13 14 15 16 16 16 17 18 19 19 19 18 15 15 16 16 16 16 15 15 15 15 14 14 13 13 14 13 13 13 13 12 12 12 12 12
13 13 13 13 13 13 13 13 14 15 16 16 17 17 18 18 18 18 19 19 18 17 17 16 15 15 15 15 14 14 14 14 14 14 14 14 14 14 13 13 13 12 12
13 13 13 13 13 13 13 13 14 15 15 15 16 16 17 17 17 18 19 19 19 18 17 16 16 15 14 14 14 14 14 14 15 14 15 14 14 14 14 14 13 13 13
13 13 13 13 13 13 13 13 13 14 14 15 15 15 15 15 16 18 19 19 19 19 19 18 16 15 14 14 14 15 14 15 15 15 15 15 14 14 14 14 14 13 13
13 13 12 13 13 12 13 13 13 13 14 14 13 13 14 14 16 17 18 19 19 18 19 19 18 16 16 16 15 15 14 14 16 16 16 15 16 15 15 15 14 14 14
13 13 12 12 12 12 12 12 11 12 12 12 12 13 14 15 15 15 16 16 17 17 18 19 18 18 17 16 16 15 15 14 15 16 16 16 16 16 16 16 16 15 16
13 12 12 12 12 12 12 12 12 11 11 12 12 13 14 14 15 14 15 15 15 16 15 17 17 17 16 15 15 15 16 15 15 15 15 16 16 16 17 17 16 16 17
14 13 12 12 12 11 11 11 11 10 11 11 12 12 12 13 14 15 15 14 14 14 14 15 15 14 14 16 17 16 15 16 16 16 16 16 16 17 17 17 17 17 16
14 14 13 12 11 11 11 11 11 11 11 11 11 12 14 13 13 13 15 15 14 14 14 13 14 15 16 16 16 16 16 16 16 16 16 16 16 16 16 15 15 15 15
15 14 14 13 12 12 11 11 11 11 12 13 13 14 16 14 13 14 13 14 14 13 13 13 14 16 16 16 16 16 16 16 16 16 16 16 16 16 15 15 15 14 14
14 15 15 14 14 14 11 12 12 12 13 13 14 14 14 13 13 13 13 13 14 14 14 14 14 14 15 16 16 16 16 16 16 16 16 15 15 15 11 12 11 12 12
13 13 14 13 12 10 10 12 13 13 13 13 13 13 12 12 13 13 13 13 13 14 14 14 15 15 15 15 15 16 15 15 14 15 15 14 14 13 11 8 8 10 8
9 8 8 8 7 6 8 11 12 12 12 12 11 12 12 11 12 11 12 12 12 13 12 11 11 12 12 10 10 10 11 11 11 10 10 9 9 7 2 1 0 2 6
4 3 2 2 2 3 5 7 9 9 9 8 8 8 8 8 9 10 10 10 9 9 9 8 7 5 5 5 5 5 5 5 6 6 5 5 4 2 -0 -1 -3 -3 -2
-0 -1 -1 -0 -0 0 2 4 5 6 4 2 1 2 2 3 3 5 7 7 5 3 1 2 1 -0 0 1 3 4 3 2 4 2 1 0 -1 -2 -3 -4 -4 -4 -4
-1 -1 -1 -1 -2 -2 -0 2 2 2 -0 -1 -2 -2 -2 -2 -0 3 4 3 1 -2 -1 -1 -1 -1 -1 -1 -1 -1 -2 -1 -1 -0 -3 -3 -2 -3 -4 -5 -5 -4 -4

GFSMA_925_temp_102.txt.gz
Temp
18 18 17 17 17 17 17 16 16 16 16 15 15 17 18 19 17 17 15 15 15 15 14 14 14 14 14 14 13 13 12 12 12 11 12 12 12 11 11 11 11 10 10
18 17 18 17 17 17 17 16 15 15 16 16 16 16 18 19 17 16 15 15 15 15 14 14 14 14 14 13 13 12 12 12 12 11 11 12 12 11 11 11 11 10 10
18 17 17 17 17 17 16 16 15 15 16 16 15 16 19 19 17 16 16 15 15 15 14 14 14 14 13 13 12 12 12 12 11 12 11 11 11 11 11 11 11 10 10
17 17 17 17 17 16 16 16 15 14 15 15 15 15 18 19 19 16 15 15 14 15 14 14 14 14 14 12 12 12 12 12 12 11 11 11 11 11 11 11 11 10 10
16 16 16 17 17 16 16 15 15 15 15 15 15 15 18 18 18 17 16 15 15 15 14 14 14 14 14 14 13 12 12 12 12 11 11 11 11 11 11 11 11 11 10
17 16 16 16 16 16 16 15 15 15 15 15 15 16 18 18 18 18 17 16 15 15 15 14 14 14 14 14 13 12 13 12 12 12 11 11 11 10 11 11 11 11 11
17 16 16 16 16 15 15 15 14 14 14 15 14 17 18 18 18 18 17 16 16 15 15 15 14 14 13 13 13 13 12 12 12 12 12 11 11 11 11 10 10 10 10
17 16 15 15 15 15 14 14 14 14 14 15 14 16 14 15 16 16 17 17 16 16 16 15 15 14 14 14 13 13 12 13 13 12 12 11 11 11 11 11 11 11 11
17 16 15 14 14 14 14 14 14 14 15 14 15 16 14 14 14 15 16 17 17 17 16 16 16 15 15 15 15 14 13 13 13 13 13 12 12 11 12 12 12 13 13
16 15 14 14 14 14 14 13 14 14 14 14 14 17 17 17 15 13 15 16 16 16 17 16 16 16 16 16 15 15 15 14 13 13 13 13 13 13 12 13 13 13 13
14 14 14 14 14 13 13 13 13 14 14 14 15 16 18 17 17 15 13 14 16 16 17 17 17 17 16 16 15 15 15 15 14 14 13 13 13 13 13 13 13 13 13
14 14 13 13 13 13 13 13 13 14 14 14 15 15 17 17 16 16 14 14 15 16 16 17 17 16 16 16 16 15 15 15 14 14 14 14 14 13 13 13 13 13 13
14 13 13 13 13 13 13 13 13 13 13 14 14 15 17 18 18 18 18 16 15 16 16 17 16 16 16 15 15 15 15 15 14 14 14 14 14 14 14 13 13 13 13
13 13 13 13 13 13 13 13 13 13 14 14 15 16 17 17 17 17 17 17 15 16 17 17 17 16 15 15 15 15 15 15 15 14 14 14 15 15 14 14 14 14 13
13 13 13 12 13 13 13 13 13 13 14 14 15 16 16 16 16 16 16 17 17 14 15 17 16 16 16 15 16 16 15 15 15 15 15 15 15 15 15 15 15 14 14
13 13 13 13 13 13 13 13 14 14 14 14 14 14 15 15 14 15 15 15 15 15 14 18 17 17 17 16 16 15 15 15 15 15 15 15 16 16 16 15 16 15 15
13 13 13 12 12 12 13 13 12 12 13 12 13 13 13 13 14 14 15 15 15 15 13 15 16 17 17 16 16 16 16 15 15 15 16 16 16 16 16 16 15 16 16
14 13 12 12 12 12 12 12 12 12 13 12 12 12 12 13 14 14 14 15 15 15 15 14 16 16 16 16 16 16 16 16 15 15 15 15 16 16 16 16 16 16 15
13 13 13 12 12 11 12 12 12 12 12 12 12 12 12 12 13 14 14 14 15 15 14 14 14 15 15 15 15 15 15 15 15 16 15 16 16 16 16 16 16 16 15
14 13 13 12 12 12 11 11 11 11 11 11 11 11 11 12 12 13 13 13 14 15 15 14 13 13 13 14 14 15 15 15 15 15 16 16 16 15 14 14 14 12 13
15 15 14 13 12 12 11 11 11 11 11 11 12 12 12 12 14 13 13 14 13 13 13 13 13 13 13 14 13 14 14 14 15 15 14 14 12 11 9 8 9 9 10
13 13 11 11 9 9 10 11 11 11 11 12 13 13 13 14 14 13 13 13 13 13 12 12 13 13 12 14 12 12 12 12 11 13 11 11 11 10 6 4 3 5 5
10 8 6 7 6 5 7 10 11 11 11 11 11 11 11 11 11 11 11 11 11 10 11 10 10 10 8 9 8 9 8 8 8 8 7 7 6 5 1 -0 -2 -1 0
3 3 2 2 3 3 5 8 9 10 9 8 7 7 7 7 7 8 8 7 7 6 6 6 5 3 2 3 4 4 4 4 4 4 4 3 1 -1 -2 -2 -3 -2 -1
-1 -1 -0 -0 1 2 3 4 6 4 3 1 1 2 2 2 3 5 5 4 1 -1 -0 -0 0 0 1 2 3 4 2 2 2 -2 -1 -1 -2 -2 -3 -3 -3 -4 -3
-1 -2 -2 -1 -2 -1 1 1 2 1 -1 -2 -2 -2 -1 -0 1 2 3 2 -1 -3 -1 -2 -2 -1 -1 -1 0 -0 -1 -1 -2 -2 -4 -3 -2 -2 -3 -4 -4 -4 -4

GFSMA_925_temp_105.txt.gz
Temp
18 18 18 18 18 17 17 17 17 16 17 17 17 18 17 17 17 16 16 15 15 14 14 14 14 13 14 14 13 13 12 12 12 12 12 12 12 11 11 11 11 11 11
18 17 17 17 17 17 17 17 16 16 16 16 17 17 17 17 17 16 15 15 15 14 14 14 14 14 14 14 13 13 12 12 12 12 12 12 12 12 11 11 11 11 11
18 17 17 17 17 17 17 16 16 16 15 16 16 17 17 15 16 16 15 14 14 15 14 14 14 14 13 14 13 12 12 12 12 12 12 12 11 11 11 11 11 11 11
18 18 17 17 17 17 17 16 15 15 15 15 15 16 16 14 16 16 15 15 14 14 14 14 14 14 14 13 13 12 12 12 12 12 11 11 11 11 11 11 11 11 11
17 17 17 17 17 17 17 18 15 15 14 15 15 16 16 14 16 15 15 14 15 15 15 14 14 14 14 13 12 12 12 12 12 12 11 11 11 11 11 11 11 11 11
17 17 17 17 17 17 17 15 15 15 15 14 15 15 15 14 15 16 15 15 15 15 14 14 14 14 14 14 13 12 13 12 12 12 12 11 11 11 11 11 11 11 11
17 17 16 16 16 16 16 16 15 15 14 14 14 14 14 15 15 16 16 15 15 15 15 14 14 14 14 14 13 13 12 13 12 12 12 11 11 11 11 10 10 11 12
17 17 16 16 16 15 16 15 15 14 14 14 14 14 13 14 16 16 15 15 15 15 15 15 15 14 14 13 13 13 13 13 13 12 12 12 12 11 11 11 11 10 11
17 17 16 16 15 15 15 15 14 14 14 14 14 15 13 15 13 15 15 16 15 15 14 15 15 15 14 14 14 14 13 13 13 13 13 12 12 12 12 11 12 12 12
17 17 16 16 15 14 14 15 14 14 14 14 14 15 16 16 14 12 15 16 16 15 15 15 15 15 15 15 15 14 14 14 13 13 13 13 13 13 13 13 13 13 13
17 17 16 15 14 14 14 14 14 14 14 14 14 13 15 16 16 13 12 14 16 16 15 15 15 16 15 15 15 15 15 15 14 14 14 13 13 13 13 13 13 12 12
16 15 14 14 14 14 14 14 14 14 14 14 14 14 15 15 15 15 13 13 15 16 16 15 16 16 16 15 16 16 15 15 15 15 14 14 13 13 13 13 13 13 13
14 14 13 13 13 14 13 13 13 14 13 13 13 14 15 15 16 17 16 13 13 15 16 16 16 17 16 16 16 16 15 15 15 15 15 15 15 14 14 13 13 13 13
14 13 13 13 13 13 13 13 13 13 13 13 13 13 14 15 16 17 17 15 13 14 15 16 17 17 17 17 16 16 16 15 15 15 15 15 15 15 14 14 14 14 14
14 15 13 13 12 13 13 13 13 13 13 13 13 14 13 13 15 16 16 16 15 12 13 16 16 17 16 16 16 16 15 15 15 15 15 15 15 15 14 14 14 14 14
14 13 13 13 12 13 13 13 13 13 13 13 13 13 13 14 14 16 16 16 15 14 13 16 17 17 17 17 16 16 16 16 16 15 15 15 15 15 15 15 16 16 15
14 13 13 12 12 13 13 13 13 13 13 13 13 13 13 14 14 15 15 15 15 15 13 15 15 16 16 16 16 16 16 16 16 16 16 16 16 16 16 16 16 16 16
13 12 13 12 12 13 13 13 13 13 13 13 13 13 13 13 13 14 14 15 15 15 14 13 15 15 16 16 16 16 15 15 15 15 15 15 16 16 16 16 15 15 14
13 13 13 13 12 13 13 13 13 13 12 13 13 13 13 13 13 13 14 14 14 14 14 13 14 15 15 15 15 15 15 15 16 15 15 15 15 14 14 14 14 13 13
13 13 13 13 12 12 13 12 12 12 13 12 12 13 12 12 13 12 13 13 13 14 13 13 14 14 14 14 14 14 14 14 14 14 14 13 13 13 12 12 11 11 10
14 13 13 12 12 11 11 11 12 11 12 11 12 12 12 12 12 12 13 12 12 13 13 13 12 12 13 13 13 13 13 13 12 12 11 10 9 9 8 7 6 6 5
13 12 11 11 11 10 10 11 11 11 11 11 11 11 11 11 11 11 11 12 12 12 12 12 12 12 12 13 12 11 10 11 10 10 9 8 7 5 3 3 1 2 2
5 6 6 6 5 7 9 11 11 11 11 10 10 10 10 10 10 10 10 11 11 11 11 11 11 10 8 7 7 8 8 8 7 7 6 5 2 2 0 -2 -1 -1 -1
0 0 1 2 3 3 6 8 9 9 8 6 6 6 6 6 7 7 8 7 6 6 6 7 6 4 4 4 4 4 4 4 3 3 3 2 -0 -3 -3 -3 -3 -3 -2
-2 -2 -2 -1 -0 0 3 5 6 4 2 1 1 2 2 3 4 4 6 4 2 -0 0 1 1 0 0 2 4 3 2 2 1 -3 -1 -1 -2 -3 -4 -4 -4 -4 -4
-2 -2 -2 -2 -2 -1 -1 0 2 1 -1 -2 -2 -1 1 2 3 3 2 1 -1 -2 -1 -1 -1 -1 -1 -1 1 1 -0 -0 -1 -3 -3 -2 -3 -3 -4 -5 -4 -4 -4

GFSMA_925_temp_111.txt.gz
Temp
18 18 18 17 18 18 18 18 18 18 18 17 17 17 17 17 18 18 18 17 17 16 15 14 14 14 13 14 14 13 13 12 12 12 12 12 12 12 11 11 11 11 11
19 18 18 17 17 18 18 18 18 18 17 17 17 16 16 17 17 17 17 16 16 16 15 14 14 14 14 14 14 13 12 12 12 12 12 11 11 11 11 11 11 11 11
19 18 18 17 18 18 18 17 17 17 16 16 16 17 16 16 16 17 16 16 15 15 15 14 14 14 14 14 14 13 12 12 12 12 12 12 11 11 11 11 11 11 11
18 18 18 18 18 17 17 17 17 16 16 16 15 15 15 15 15 16 16 15 15 15 14 14 14 14 14 14 14 13 12 12 12 12 12 12 11 11 11 11 11 11 10
18 18 18 18 17 17 17 17 16 16 14 14 14 15 15 14 15 15 15 15 14 14 14 14 14 14 14 14 13 13 13 12 12 12 12 12 11 11 11 11 11 11 11
18 17 17 17 17 17 16 16 16 14 14 14 14 14 14 14 14 14 15 15 14 14 14 14 14 14 14 14 14 13 13 13 12 12 12 12 12 11 11 11 11 11 11
17 17 17 17 17 16 16 16 15 14 14 14 14 13 14 14 14 14 14 14 14 14 14 14 14 14 14 14 14 14 13 13 12 12 12 11 11 11 11 11 11 11 11
17 17 17 17 17 16 15 15 14 14 14 13 14 14 13 12 13 13 13 13 14 13 14 14 14 14 15 14 14 14 13 13 13 12 12 12 12 12 11 11 11 11 10
17 17 17 17 17 16 15 15 15 14 14 14 14 14 13 13 13 12 13 13 13 13 14 14 14 14 14 14 14 14 13 13 13 13 13 12 12 12 12 11 11 11 11
17 17 16 16 17 16 15 15 15 14 14 14 13 14 15 14 13 12 12 12 13 13 13 14 14 14 14 14 14 14 13 13 13 13 13 13 13 12 12 12 12 12 12
17 17 16 16 16 15 15 15 15 14 14 14 14 14 13 14 15 13 13 12 12 12 13 14 14 14 14 14 14 14 14 13 13 13 13 13 13 13 13 12 12 12 12
16 17 17 17 17 16 15 15 15 14 14 14 14 14 14 14 14 14 13 13 13 12 12 13 14 14 15 14 14 14 14 14 13 13 13 13 13 13 13 13 13 13 13
16 17 17 16 16 16 16 16 16 15 14 14 13 13 14 14 15 15 15 13 13 12 12 13 14 15 15 15 15 14 14 14 14 14 14 14 13 13 13 13 13 13 13
16 17 16 16 16 16 15 15 15 15 14 13 13 14 13 13 13 13 14 14 12 12 12 13 14 14 15 15 15 15 15 15 15 15 15 14 14 14 14 14 13 13 13
16 16 15 15 16 16 15 16 14 13 13 14 14 14 13 12 12 13 14 14 14 13 12 13 14 15 15 15 16 16 15 16 16 15 15 15 15 14 14 14 14 14 14
16 16 15 15 16 16 15 14 13 13 13 13 13 13 13 12 12 13 14 14 15 13 13 14 14 16 16 16 16 16 16 16 16 15 15 15 15 14 14 14 14 14 14
15 15 15 15 16 15 14 13 12 12 12 13 13 13 13 13 12 13 13 13 13 13 13 13 14 15 16 16 16 15 15 15 16 16 15 15 15 14 14 14 13 13 13
14 14 14 15 15 14 13 13 12 12 12 13 13 13 12 12 12 12 12 12 12 13 13 13 13 15 15 16 16 15 15 16 16 15 14 14 14 13 14 14 14 14 14
14 13 13 14 13 13 13 12 12 12 12 13 13 13 13 12 12 12 12 12 12 12 12 12 14 15 14 14 14 15 15 15 13 12 14 14 14 14 14 14 13 13 13
13 13 13 13 13 13 13 12 12 12 12 13 13 13 13 12 12 12 12 12 12 11 11 11 12 12 12 13 14 14 14 14 12 12 12 12 12 11 11 10 9 8 8
13 13 13 12 12 12 12 12 12 12 12 12 12 12 12 12 13 13 12 12 12 11 11 11 11 11 12 12 13 13 14 13 11 11 9 7 6 5 5 4 4 4 4
7 10 12 12 12 12 12 12 12 12 12 12 12 12 12 12 12 12 12 12 12 11 11 11 11 11 11 12 12 13 12 11 8 8 7 4 3 3 2 1 1 2 2
1 1 3 5 6 7 10 11 11 11 11 11 11 12 12 12 12 12 11 11 11 11 11 11 11 11 11 12 11 11 11 11 10 6 5 -0 1 -0 -0 -1 -1 -1 -1
0 -0 -0 -0 1 1 4 8 10 10 9 8 8 9 9 10 10 10 9 8 7 7 8 9 10 9 9 9 9 9 9 8 5 4 4 -1 -2 -2 -2 -2 -2 -3 -3
-0 -1 -0 -1 -1 -1 1 2 7 6 4 3 3 4 5 5 6 7 7 4 1 0 0 3 3 4 4 5 5 5 5 4 0 -0 1 -1 -3 -4 -3 -3 -4 -4 -4
-3 -3 -2 -1 -1 -2 -1 -0 1 0 -0 -1 -0 1 2 2 2 2 4 2 -1 -2 -0 -0 -1 0 1 1 2 2 2 2 -1 -1 -1 -1 -3 -3 -4 -4 -4 -4 -4

GFSMA_925_temp_114.txt.gz
Temp
18 18 18 18 18 18 18 18 17 17 17 17 17 16 17 17 17 17 17 16 16 16 15 15 14 14 13 14 14 14 13 13 13 12 12 12 12 12 11 11 11 11 11
18 18 17 17 18 18 18 18 18 17 17 16 16 16 16 17 17 18 17 16 15 15 15 15 14 14 14 13 14 14 13 13 12 12 12 12 12 11 11 11 11 11 10
18 18 17 16 17 18 18 17 17 16 16 16 16 16 16 16 16 17 17 16 15 15 15 15 15 14 14 14 14 13 13 13 13 12 12 12 11 11 11 11 11 11 10
18 18 17 17 17 17 17 17 17 16 16 16 17 16 15 15 15 16 16 16 15 15 14 14 15 14 14 14 14 13 13 13 13 12 12 11 11 11 11 11 11 11 11
18 18 18 17 17 16 17 17 16 16 16 15 15 15 15 15 15 15 15 15 16 15 14 14 14 14 14 14 14 14 13 13 13 12 12 12 11 11 11 11 11 10 10
18 17 18 18 17 16 16 16 15 14 15 14 13 13 14 14 14 14 15 15 15 15 14 14 14 14 14 14 14 14 13 13 13 12 12 12 11 11 11 11 11 11 10
18 17 17 17 17 16 16 15 15 14 14 14 14 14 14 14 14 14 14 14 14 15 14 14 14 14 14 14 14 14 13 13 13 13 12 12 12 12 11 11 11 11 11
18 17 17 17 17 15 15 15 15 14 14 14 14 14 13 13 13 14 14 13 13 14 14 13 14 14 14 14 14 14 14 13 13 13 13 13 12 12 12 11 11 11 11
17 17 17 17 16 16 15 15 15 14 14 14 14 15 13 14 12 13 13 13 13 13 14 14 14 14 14 14 14 14 14 14 13 13 13 13 12 11 12 12 11 11 11
17 17 17 16 17 16 15 15 15 15 14 14 13 14 15 14 13 12 12 13 13 13 13 14 14 13 14 14 14 14 14 14 13 13 13 13 12 12 12 12 11 11 11
16 17 16 16 16 17 16 16 15 14 14 14 14 14 13 14 14 12 13 12 12 13 13 13 14 13 14 14 14 14 14 14 13 13 13 13 13 13 12 12 12 12 12
16 16 16 16 16 15 15 15 15 15 14 14 14 14 14 14 13 13 13 13 13 12 13 13 13 13 14 14 14 14 14 14 13 13 13 13 13 13 13 13 13 13 13
15 16 16 16 16 16 15 15 15 14 14 14 14 14 14 14 14 14 15 13 13 12 12 12 13 13 14 14 14 14 14 14 13 13 13 13 13 13 13 13 13 13 12
15 16 16 15 15 15 16 16 15 14 14 15 14 14 14 13 13 13 14 14 12 11 11 12 12 12 14 15 15 15 15 14 14 14 13 13 13 13 13 13 13 13 13
16 16 16 15 15 15 16 15 15 14 14 14 14 14 13 13 13 13 13 14 14 13 12 12 12 13 13 15 15 15 15 15 15 15 14 14 14 14 14 14 13 13 13
15 16 16 15 14 15 15 14 14 14 14 13 14 13 13 13 13 13 12 12 13 14 13 13 13 14 15 15 16 15 15 16 16 15 15 15 15 15 14 14 14 14 13
15 15 15 15 14 14 14 14 14 14 13 13 13 13 13 13 13 12 12 12 12 13 13 12 14 14 13 15 15 15 15 15 15 15 15 15 15 14 14 14 14 13 13
15 15 14 14 14 14 14 14 14 14 13 13 13 12 13 13 12 12 11 12 12 13 13 12 12 12 13 14 15 14 14 14 14 14 14 14 14 14 14 14 13 13 13
14 14 13 13 13 13 13 14 14 13 13 12 12 13 13 13 12 12 12 11 11 11 12 12 12 12 12 13 13 13 13 12 13 12 13 12 13 13 13 13 13 13 13
12 13 13 13 13 13 13 13 13 13 13 12 12 12 13 13 12 12 12 12 11 11 11 12 11 12 12 13 13 13 12 12 12 12 13 12 12 11 11 10 9 9 9
8 10 12 13 13 12 12 12 12 13 12 12 12 12 13 13 13 13 12 11 11 11 11 11 11 11 11 11 12 12 12 11 9 9 8 7 6 6 5 5 5 5 5
4 4 5 7 6 8 9 12 12 12 12 12 12 12 12 12 12 12 12 11 11 11 11 11 11 11 11 12 11 12 11 9 7 7 6 3 3 4 2 2 1 1 2
1 2 2 3 1 1 4 9 10 12 12 12 12 12 12 12 12 12 12 12 12 12 12 12 12 11 12 11 11 11 11 11 10 7 6 -1 1 1 -1 -1 -1 -0 -0
-2 -1 -0 0 2 1 1 4 5 8 10 9 9 10 10 11 11 11 11 10 9 9 9 10 11 11 11 10 11 11 11 9 5 4 4 -2 -1 -2 -2 -2 -2 -2 -1
-3 -3 -3 -2 -1 -0 1 1 2 1 1 1 3 5 6 7 6 8 8 6 4 3 2 4 5 7 8 8 7 8 7 5 0 0 1 -1 -3 -3 -3 -3 -4 -4 -4
-3 -3 -3 -3 -3 -3 -1 0 1 0 -1 -1 -1 -0 0 2 2 3 4 3 0 -1 0 0 0 1 2 3 3 4 4 4 -1 -1 -1 -1 -4 -3 -4 -5 -5 -5 -5

GFSMA_925_temp_117.txt.gz
Temp
18 18 17 17 17 18 18 17 16 17 17 17 16 16 16 16 17 18 17 17 16 16 16 15 14 14 13 14 14 14 14 13 13 13 13 13 13 13 12 12 11 11 11
17 17 17 17 16 17 17 17 16 16 16 16 16 16 16 16 16 17 17 17 16 16 15 15 15 14 14 13 14 14 14 14 13 13 13 12 13 12 12 11 11 11 11
17 17 16 17 16 17 17 16 16 16 16 16 15 15 15 16 15 16 17 17 16 16 15 15 14 15 14 14 14 14 13 13 13 13 13 12 12 12 11 11 11 11 10
18 17 17 17 16 17 16 16 16 15 15 15 15 15 15 15 15 15 16 16 16 16 15 14 14 14 14 14 13 14 13 13 13 13 12 12 12 12 11 11 11 11 10
18 17 17 17 16 16 16 15 16 16 15 15 14 14 14 14 14 14 15 15 16 16 15 15 14 14 15 14 14 13 13 13 13 13 13 12 12 11 11 11 11 11 11
18 17 17 17 16 16 15 15 15 15 15 16 14 14 14 14 14 14 14 14 14 15 15 15 14 14 14 14 14 14 13 13 13 12 13 12 12 11 11 11 11 11 11
18 17 16 16 16 16 15 16 15 14 14 15 14 14 14 14 14 14 15 14 14 14 15 15 14 14 14 14 14 14 13 13 13 12 12 13 12 12 11 11 11 11 11
18 17 17 16 16 15 15 15 15 14 14 14 14 14 14 14 13 14 14 14 14 14 14 14 13 14 14 14 14 14 14 14 13 13 13 12 12 12 12 12 11 11 11
18 17 17 16 16 16 15 14 14 14 14 14 14 15 14 15 14 13 13 14 14 13 14 14 14 14 14 14 13 14 14 14 13 13 14 13 12 13 12 12 12 11 11
16 17 17 17 16 15 15 15 14 15 14 14 14 14 16 15 15 14 13 13 14 13 13 13 14 13 13 14 14 14 14 14 14 14 13 13 13 13 13 12 12 12 11
16 17 17 16 16 15 15 15 15 15 15 15 14 14 14 14 14 14 13 13 13 13 13 13 13 14 13 14 13 13 14 14 14 14 14 13 13 13 13 12 12 12 12
16 16 16 16 16 15 15 15 15 15 15 14 14 14 14 14 13 13 14 13 13 13 13 13 13 13 14 13 14 14 14 14 14 14 13 13 13 13 13 13 13 12 12
16 16 16 16 16 15 15 15 15 15 14 14 14 14 14 15 15 15 14 15 13 12 12 12 13 13 13 13 13 14 14 14 14 14 13 13 13 13 13 13 13 13 13
16 16 15 15 16 15 15 15 15 15 15 15 14 14 14 14 14 14 14 14 13 12 12 13 12 12 13 13 13 15 14 14 14 14 13 13 13 13 13 13 13 13 13
15 16 15 15 15 15 15 15 15 15 15 15 14 14 14 14 14 14 13 13 14 13 13 13 12 12 13 13 13 14 14 15 14 14 14 14 13 13 13 13 13 13 13
15 15 15 15 15 15 15 14 15 15 14 14 14 14 14 14 13 13 13 13 13 13 13 14 12 13 13 12 14 13 14 15 15 15 14 14 14 14 14 14 13 13 13
15 15 15 15 15 15 15 14 14 14 14 14 14 14 14 13 13 13 13 13 13 13 13 13 12 12 12 13 12 12 13 14 14 15 14 14 14 14 14 14 14 13 13
14 15 15 14 14 14 14 14 14 14 14 14 13 13 13 13 13 13 13 12 12 12 12 11 11 12 13 12 12 13 13 13 12 13 14 14 14 14 14 13 14 13 13
13 13 14 14 14 14 14 13 13 13 13 13 13 13 13 13 12 12 12 12 12 12 12 12 11 11 11 12 12 13 12 11 11 13 13 13 14 13 14 13 13 13 13
8 10 12 13 13 13 13 13 13 13 13 13 13 13 13 12 12 12 12 12 12 11 11 11 11 11 11 12 12 11 11 10 10 10 11 11 12 12 11 11 11 12 11
3 5 6 7 8 8 8 10 12 12 12 12 12 13 12 12 13 12 12 12 11 11 11 11 11 11 11 11 11 11 11 10 9 9 8 7 7 8 9 8 7 8 7
-0 2 1 3 4 4 5 7 10 11 12 12 12 12 12 13 12 12 12 12 12 12 11 11 12 12 11 11 11 11 11 9 7 7 7 5 5 4 4 3 2 3 3
-1 -1 -1 -1 -0 1 2 5 8 9 9 10 11 12 12 12 12 12 12 11 11 11 11 11 12 12 12 11 11 11 11 10 11 8 7 1 1 1 0 0 0 0 0
-3 -3 -3 -2 -2 -1 0 2 5 5 5 2 3 6 8 9 10 11 11 10 9 10 10 11 11 11 11 11 11 11 11 10 7 5 5 -1 -1 -2 -1 -2 -2 -2 -1
-3 -4 -4 -4 -3 -3 -1 -0 1 4 2 1 0 0 2 4 4 6 7 7 5 4 3 6 7 8 9 9 10 10 10 5 1 1 2 -1 -3 -3 -3 -3 -4 -4 -3
-3 -3 -4 -4 -4 -4 -3 -1 -0 -1 -1 -1 -1 -1 -2 -0 1 2 3 2 -0 -1 1 1 1 2 3 4 4 5 5 5 1 0 0 -1 -3 -3 -4 -5 -5 -5 -5

GFSMA_925_temp_120.txt.gz
Temp
18 20 20 20 19 19 19 20 20 19 19 19 19 19 19 18 18 17 17 17 16 17 16 16 15 14 14 15 15 15 15 15 14 14 14 13 13 13 13 12 12 12 12
18 20 20 20 19 19 20 19 19 19 19 19 19 19 19 19 18 18 17 17 17 17 16 16 15 14 14 14 14 14 14 14 14 14 14 13 13 13 12 12 12 12 11
18 19 19 20 19 19 18 18 19 19 19 19 19 19 19 19 18 18 17 17 16 16 16 16 15 15 15 14 14 14 14 14 14 14 13 13 13 13 12 12 11 11 11
18 17 17 17 18 17 17 18 18 19 19 19 19 19 19 19 19 18 18 17 16 16 16 16 15 14 14 14 14 14 14 14 13 13 13 13 13 12 12 12 12 11 11
17 17 17 17 17 17 16 17 18 19 19 19 19 19 19 19 19 18 18 17 16 16 15 15 15 14 14 14 14 14 13 14 13 13 13 13 13 12 12 12 12 12 11
17 16 17 17 17 16 15 16 16 18 19 19 19 19 18 18 18 17 17 17 16 16 15 14 15 14 14 14 14 14 13 13 13 13 13 13 13 12 12 12 11 11 11
17 16 16 16 16 16 16 16 16 16 18 18 17 16 15 15 15 15 16 16 16 16 15 15 14 14 14 13 13 14 14 14 13 13 12 13 13 12 12 12 12 11 11
17 17 16 16 16 16 15 15 15 16 16 16 17 17 18 17 14 15 15 15 15 16 15 15 14 15 14 13 13 14 14 14 13 13 13 13 13 13 12 12 12 12 11
17 17 16 16 16 16 15 15 15 15 16 15 16 19 18 20 21 17 16 16 16 15 15 14 14 14 14 14 14 14 14 14 14 13 14 13 13 13 13 12 12 12 12
18 16 16 16 16 16 16 15 15 15 16 15 15 17 19 20 20 19 14 15 16 15 14 14 13 14 13 14 14 14 14 14 14 14 13 14 14 13 13 13 12 12 12
17 17 16 16 16 16 16 16 15 15 15 16 16 16 17 18 18 19 18 15 14 15 15 14 14 14 13 14 14 15 14 14 14 14 14 14 14 14 13 13 13 12 12
16 16 17 16 16 16 16 15 15 15 15 15 16 17 17 17 17 18 19 19 16 14 14 14 14 14 13 14 14 14 14 14 14 14 14 13 13 13 13 13 13 13 12
16 16 16 16 16 16 16 15 16 15 16 16 16 16 17 18 17 16 16 18 18 17 14 13 13 13 13 13 13 13 13 14 14 14 14 14 14 13 13 13 13 13 13
16 16 16 16 16 16 16 16 16 16 16 16 16 15 16 15 15 16 16 17 18 14 14 15 13 13 13 13 14 14 13 13 14 14 14 14 14 13 13 13 13 13 13
16 16 16 16 16 16 16 16 16 16 16 16 16 16 15 15 15 15 16 17 16 15 14 14 14 13 13 13 13 14 14 14 14 14 14 14 14 14 13 13 13 13 13
15 16 16 16 15 16 16 15 15 15 15 15 15 15 15 15 14 14 15 14 14 14 14 14 14 14 13 13 12 13 13 13 14 14 14 14 14 13 13 13 13 13 13
13 15 15 15 15 15 15 15 15 15 15 15 15 15 15 15 14 14 14 14 14 13 13 14 13 13 12 12 12 12 12 13 14 14 14 14 14 14 13 13 13 13 13
11 13 14 15 15 15 15 14 14 14 15 15 15 15 14 14 14 14 14 14 13 13 13 13 12 12 12 12 12 12 12 13 14 14 14 14 14 14 13 13 13 13 13
7 10 12 13 14 14 14 14 14 14 14 14 14 14 14 14 14 14 13 13 15 14 13 12 12 11 11 12 12 11 11 12 13 12 13 13 14 13 14 13 13 13 14
3 4 6 7 8 10 10 12 12 13 14 14 14 14 14 13 13 14 14 15 14 13 12 12 12 11 11 11 11 11 11 11 11 11 11 11 12 13 13 13 13 13 13
0 1 1 3 4 4 4 7 9 11 12 13 13 13 13 13 13 14 14 13 13 12 12 12 12 11 11 11 11 11 11 10 8 9 8 8 9 9 8 9 9 10 10
-1 -1 -1 -0 -0 1 2 3 6 7 9 11 12 13 13 13 13 13 13 12 12 12 12 12 12 11 11 11 11 11 11 8 7 7 6 4 5 5 5 5 6 6 7
-2 -2 -2 -2 -2 -2 0 1 2 4 6 6 6 8 9 11 12 12 12 12 12 12 12 12 12 12 12 11 11 11 11 10 11 8 7 2 2 3 2 2 1 1 2
-2 -3 -3 -3 -3 -3 -0 1 0 0 1 2 2 3 4 5 6 8 10 9 8 8 10 10 11 11 11 11 11 11 11 10 8 7 6 -0 -0 -1 -1 -1 -1 -1 -1
-3 -3 -3 -4 -3 -4 -3 -1 -0 -1 -2 -2 -2 -1 1 2 3 4 5 6 3 2 2 4 6 6 8 10 10 11 10 7 2 2 3 1 -2 -3 -3 -3 -3 -3 -3
-3 -3 -3 -4 -4 -4 -4 -4 -3 -3 -3 -4 -3 -3 -2 -1 1 3 2 0 -1 -2 -1 0 1 2 3 3 5 6 7 9 2 0 1 1 -2 -3 -4 -4 -5 -5 -5

GFSMA_925_temp_123.txt.gz
Temp
21 21 21 21 20 20 21 20 20 20 20 20 21 20 19 19 20 19 17 18 17 17 17 17 16 15 16 15 15 15 15 15 15 14 14 14 14 13 13 13 12 12 12
21 21 21 21 20 20 20 20 20 20 21 21 20 20 20 20 19 20 17 17 17 17 17 16 16 15 15 15 15 15 15 15 15 14 14 14 13 13 13 13 12 12 12
20 22 21 20 20 20 20 20 20 20 20 21 21 20 19 19 19 19 18 17 17 17 17 16 16 16 15 15 15 15 15 15 15 14 14 14 13 13 13 12 12 12 11
20 20 22 21 20 20 19 19 19 20 20 20 21 21 21 20 19 19 18 18 17 17 16 16 15 15 15 14 14 15 14 14 14 14 14 14 13 13 13 12 12 12 11
19 19 22 20 20 19 19 19 20 20 19 20 20 21 21 20 20 19 19 18 17 17 16 16 15 16 15 14 14 14 14 14 14 14 14 13 13 13 13 12 12 12 11
18 18 19 18 19 18 18 19 19 19 20 19 20 20 20 20 20 19 19 18 18 17 16 16 15 15 15 15 14 14 14 14 14 13 14 13 13 13 13 12 12 12 11
18 17 17 17 18 18 17 17 18 19 19 19 19 19 19 18 18 19 19 19 18 17 16 15 15 14 15 15 14 14 14 14 13 13 13 13 13 13 13 12 12 12 11
17 17 17 17 17 17 17 17 17 17 19 19 19 18 18 18 17 17 17 18 18 18 18 16 15 15 14 14 14 14 14 14 14 14 13 13 13 13 13 12 12 12 12
17 17 17 17 17 16 17 17 17 17 18 18 18 19 19 21 23 19 17 17 18 17 17 16 15 15 14 14 15 14 14 14 14 14 13 14 13 13 13 12 12 12 12
17 17 17 17 16 16 16 16 17 17 17 16 16 17 20 22 22 22 20 19 18 18 17 16 16 15 15 14 14 14 14 14 14 14 14 14 14 13 13 13 13 12 12
19 17 16 16 16 16 16 17 16 17 17 17 16 17 17 20 20 21 21 19 18 18 17 16 16 15 14 14 14 14 14 14 14 14 14 14 14 13 14 13 13 13 12
19 19 17 17 16 16 16 16 16 16 16 16 17 18 19 20 20 20 20 21 19 18 17 18 16 15 15 14 14 14 14 14 14 14 14 13 14 13 13 13 13 13 13
18 20 19 18 16 16 16 16 16 16 16 16 16 17 19 19 19 20 19 20 20 20 18 16 16 16 15 14 14 14 14 14 14 14 14 14 14 13 13 13 13 13 13
17 17 17 18 18 17 16 16 16 16 16 16 16 17 18 18 19 19 19 18 18 19 19 16 16 15 15 14 14 14 14 14 14 14 14 14 14 14 14 13 13 13 13
16 17 17 17 17 16 16 16 16 17 16 16 17 17 17 18 18 18 18 17 18 17 19 19 17 17 14 13 13 13 13 13 14 14 14 14 14 14 14 14 13 13 13
14 16 17 16 16 16 16 16 16 16 17 17 16 17 17 17 17 17 16 16 16 17 18 19 17 17 14 13 13 13 13 13 13 13 14 14 14 14 14 14 14 13 13
11 13 15 16 16 16 15 16 16 16 16 16 16 15 16 17 16 16 15 15 15 16 16 17 16 15 15 13 13 13 13 13 12 13 13 13 14 14 14 14 14 13 13
6 8 11 14 14 15 15 15 15 15 15 15 15 17 15 15 15 15 15 15 15 16 16 15 15 14 14 13 13 13 13 12 12 12 13 13 13 14 14 14 14 13 13
3 4 6 7 7 9 11 11 12 14 15 15 15 15 15 15 15 15 15 14 15 15 14 14 15 14 13 13 12 12 12 12 12 12 13 13 13 13 13 13 13 13 13
1 1 2 2 2 3 5 7 9 11 12 13 14 14 15 15 14 14 14 14 14 14 15 15 14 13 12 12 12 12 12 12 11 11 12 12 13 12 12 13 13 13 13
-1 -0 -0 0 0 1 1 3 6 6 7 9 11 13 14 14 14 14 14 14 14 14 14 13 13 12 12 11 12 12 12 11 10 11 10 11 12 12 11 11 12 12 12
-2 -1 -1 -1 -2 -2 -0 1 2 3 3 4 5 8 10 11 12 13 13 13 14 14 13 12 12 12 12 12 11 11 11 8 8 8 9 7 8 9 8 8 8 10 11
-2 -3 -3 -2 -3 -3 -1 -0 0 1 0 0 -0 1 3 5 6 9 11 12 12 12 12 12 12 12 12 12 11 11 11 10 11 8 8 3 4 5 5 4 5 6 6
-2 -3 -3 -3 -3 -4 -3 -2 -1 -1 -1 -2 -2 -2 -1 0 3 5 5 7 7 7 7 8 9 10 10 11 11 11 11 10 8 8 7 1 1 1 1 1 1 1 2
-2 -3 -3 -3 -3 -4 -4 -3 -2 -3 -3 -3 -3 -3 -3 -2 0 1 3 2 0 -0 1 1 1 2 3 7 9 11 10 7 2 4 5 3 -1 -2 -1 -1 -1 -1 -1
-3 -3 -3 -3 -4 -4 -4 -4 -4 -3 -2 -3 -3 -4 -4 -4 -2 -0 -0 0 0 -1 -1 0 1 1 2 2 4 5 5 8 4 1 3 2 -2 -2 -4 -4 -3 -3 -2